Wetterdaten: Mittwoch, 31.12.2014
Datum Zeit Temp. Aussen +5cm Feuchte Auss Luftdruck Regen Sonnenschein Regendauer Solar Windben
31.12.2014 00:00 2,6 C 1,1 C 95 % 1033,9 hPa 0,0 l/m 0 min 0 min 0 W/m 14,6 km/h (3 Bft)
31.12.2014 00:02 2,5 C 1,1 C 95 % 1033,9 hPa 0,0 l/m 0 min 0 min 0 W/m 16,7 km/h (3 Bft)
31.12.2014 00:05 2,6 C 1,1 C 95 % 1033,9 hPa 0,0 l/m 0 min 0 min 0 W/m 16,7 km/h (3 Bft)
31.12.2014 00:06 2,6 C 1,1 C 95 % 1033,9 hPa 0,0 l/m 0 min 0 min 0 W/m 18,8 km/h (3 Bft)
31.12.2014 00:08 2,5 C 1,1 C 95 % 1033,8 hPa 0,0 l/m 0 min 0 min 0 W/m 12,6 km/h (3 Bft)
31.12.2014 00:10 2,5 C 1,1 C 95 % 1033,8 hPa 0,0 l/m 0 min 0 min 0 W/m 23,0 km/h (4 Bft)
31.12.2014 00:12 2,6 C 1,7 C 95 % 1033,8 hPa 0,0 l/m 0 min 0 min 0 W/m 18,8 km/h (3 Bft)
31.12.2014 00:14 2,6 C 1,7 C 95 % 1033,8 hPa 0,0 l/m 0 min 0 min 0 W/m 16,7 km/h (3 Bft)
31.12.2014 00:16 2,6 C 1,1 C 95 % 1033,7 hPa 0,0 l/m 0 min 0 min 0 W/m 16,7 km/h (3 Bft)
31.12.2014 00:18 2,6 C 1,1 C 95 % 1033,8 hPa 0,0 l/m 0 min 0 min 0 W/m 16,7 km/h (3 Bft)
31.12.2014 00:20 2,6 C 1,1 C 95 % 1033,8 hPa 0,0 l/m 0 min 0 min 0 W/m 14,6 km/h (3 Bft)
31.12.2014 00:22 2,6 C 1,1 C 95 % 1033,8 hPa 0,0 l/m 0 min 2 min 0 W/m 16,7 km/h (3 Bft)
31.12.2014 00:24 2,6 C 1,1 C 95 % 1033,9 hPa 0,0 l/m 0 min 2 min 0 W/m 16,7 km/h (3 Bft)
31.12.2014 00:26 2,5 C 1,1 C 95 % 1033,8 hPa 0,0 l/m 0 min 0 min 0 W/m 14,6 km/h (3 Bft)
31.12.2014 00:28 2,6 C 1,1 C 95 % 1033,8 hPa 0,0 l/m 0 min 0 min 0 W/m 12,6 km/h (3 Bft)
31.12.2014 00:30 2,5 C 1,1 C 95 % 1033,8 hPa 0,0 l/m 0 min 0 min 0 W/m 16,7 km/h (3 Bft)
31.12.2014 00:32 2,6 C 1,1 C 95 % 1033,8 hPa 0,0 l/m 0 min 0 min 0 W/m 20,9 km/h (4 Bft)
31.12.2014 00:34 2,6 C 1,1 C 95 % 1033,7 hPa 0,0 l/m 0 min 0 min 0 W/m 23,0 km/h (4 Bft)
31.12.2014 00:36 2,6 C 1,1 C 95 % 1033,7 hPa 0,0 l/m 0 min 0 min 0 W/m 20,9 km/h (4 Bft)
31.12.2014 00:38 2,6 C 1,1 C 95 % 1033,7 hPa 0,0 l/m 0 min 0 min 0 W/m 18,8 km/h (3 Bft)
31.12.2014 00:40 2,6 C 1,1 C 95 % 1033,8 hPa 0,0 l/m 0 min 0 min 0 W/m 18,8 km/h (3 Bft)
31.12.2014 00:42 2,5 C 1,1 C 95 % 1033,8 hPa 0,0 l/m 0 min 0 min 0 W/m 16,7 km/h (3 Bft)
31.12.2014 00:44 2,6 C 1,1 C 95 % 1033,8 hPa 0,0 l/m 0 min 0 min 0 W/m 18,8 km/h (3 Bft)
31.12.2014 00:46 2,6 C 1,1 C 95 % 1033,8 hPa 0,0 l/m 0 min 0 min 0 W/m 12,6 km/h (3 Bft)
31.12.2014 00:48 2,5 C 1,1 C 95 % 1033,7 hPa 0,0 l/m 0 min 0 min 0 W/m 20,9 km/h (4 Bft)
31.12.2014 00:50 2,5 C 1,1 C 95 % 1033,7 hPa 0,0 l/m 0 min 0 min 0 W/m 14,6 km/h (3 Bft)
31.12.2014 00:52 2,5 C 1,1 C 95 % 1033,7 hPa 0,0 l/m 0 min 0 min 0 W/m 14,6 km/h (3 Bft)
31.12.2014 00:54 2,5 C 1,1 C 95 % 1033,7 hPa 0,0 l/m 0 min 0 min 0 W/m 14,6 km/h (3 Bft)
31.12.2014 00:56 2,5 C 1,1 C 95 % 1033,7 hPa 0,0 l/m 0 min 0 min 0 W/m 14,6 km/h (3 Bft)
31.12.2014 00:58 2,5 C 1,1 C 95 % 1033,7 hPa 0,0 l/m 0 min 0 min 0 W/m 16,7 km/h (3 Bft)
31.12.2014 01:00 2,5 C 1,1 C 95 % 1033,7 hPa 0,0 l/m 0 min 0 min 0 W/m 16,7 km/h (3 Bft)
31.12.2014 01:02 2,5 C 1,1 C 95 % 1033,7 hPa 0,0 l/m 0 min 0 min 0 W/m 18,8 km/h (3 Bft)
31.12.2014 01:04 2,5 C 1,1 C 95 % 1033,7 hPa 0,0 l/m 0 min 0 min 0 W/m 16,7 km/h (3 Bft)
31.12.2014 01:06 2,5 C 1,1 C 95 % 1033,6 hPa 0,0 l/m 0 min 0 min 0 W/m 14,6 km/h (3 Bft)
31.12.2014 01:08 2,5 C 1,1 C 95 % 1033,6 hPa 0,0 l/m 0 min 0 min 0 W/m 18,8 km/h (3 Bft)
31.12.2014 01:10 2,5 C 1,1 C 95 % 1033,5 hPa 0,0 l/m 0 min 0 min 0 W/m 16,7 km/h (3 Bft)
31.12.2014 01:12 2,5 C 1,1 C 95 % 1033,5 hPa 0,0 l/m 0 min 0 min 0 W/m 18,8 km/h (3 Bft)
31.12.2014 01:14 2,5 C 1,1 C 95 % 1033,5 hPa 0,0 l/m 0 min 0 min 0 W/m 18,8 km/h (3 Bft)
31.12.2014 01:16 2,5 C 1,1 C 95 % 1033,4 hPa 0,0 l/m 0 min 0 min 0 W/m 20,9 km/h (4 Bft)
31.12.2014 01:18 2,5 C 1,1 C 95 % 1033,5 hPa 0,0 l/m 0 min 0 min 0 W/m 18,8 km/h (3 Bft)
31.12.2014 01:20 2,5 C 1,1 C 95 % 1033,4 hPa 0,0 l/m 0 min 0 min 0 W/m 18,8 km/h (3 Bft)
31.12.2014 01:22 2,5 C 1,1 C 95 % 1033,4 hPa 0,0 l/m 0 min 0 min 0 W/m 18,8 km/h (3 Bft)
31.12.2014 01:24 2,5 C 1,1 C 95 % 1033,4 hPa 0,0 l/m 0 min 0 min 0 W/m 16,7 km/h (3 Bft)
31.12.2014 01:26 2,5 C 1,1 C 95 % 1033,4 hPa 0,0 l/m 0 min 0 min 0 W/m 14,6 km/h (3 Bft)
31.12.2014 01:28 2,5 C 1,1 C 95 % 1033,4 hPa 0,0 l/m 0 min 0 min 0 W/m 18,8 km/h (3 Bft)
31.12.2014 01:30 2,5 C 1,1 C 95 % 1033,4 hPa 0,0 l/m 0 min 0 min 0 W/m 18,8 km/h (3 Bft)
31.12.2014 01:32 2,5 C 1,1 C 95 % 1033,4 hPa 0,0 l/m 0 min 0 min 0 W/m 16,7 km/h (3 Bft)
31.12.2014 01:34 2,5 C 1,1 C 96 % 1033,4 hPa 0,0 l/m 0 min 0 min 0 W/m 18,8 km/h (3 Bft)
31.12.2014 01:36 2,5 C 1,1 C 96 % 1033,4 hPa 0,0 l/m 0 min 0 min 0 W/m 14,6 km/h (3 Bft)
31.12.2014 01:38 2,5 C 1,1 C 96 % 1033,5 hPa 0,0 l/m 0 min 0 min 0 W/m 16,7 km/h (3 Bft)
31.12.2014 01:40 2,5 C 1,1 C 96 % 1033,5 hPa 0,0 l/m 0 min 0 min 0 W/m 18,8 km/h (3 Bft)
31.12.2014 01:42 2,5 C 1,1 C 96 % 1033,5 hPa 0,0 l/m 0 min 0 min 0 W/m 20,9 km/h (4 Bft)
31.12.2014 01:44 2,5 C 1,1 C 96 % 1033,5 hPa 0,0 l/m 0 min 0 min 0 W/m 18,8 km/h (3 Bft)
31.12.2014 01:46 2,5 C 1,1 C 96 % 1033,5 hPa 0,0 l/m 0 min 0 min 0 W/m 20,9 km/h (4 Bft)
31.12.2014 01:48 2,5 C 1,1 C 96 % 1033,5 hPa 0,0 l/m 0 min 0 min 0 W/m 16,7 km/h (3 Bft)
31.12.2014 01:50 2,5 C 1,1 C 96 % 1033,5 hPa 0,0 l/m 0 min 0 min 0 W/m 16,7 km/h (3 Bft)
31.12.2014 01:52 2,5 C 1,1 C 96 % 1033,5 hPa 0,0 l/m 0 min 0 min 0 W/m 23,0 km/h (4 Bft)
31.12.2014 01:54 2,5 C 1,1 C 96 % 1033,5 hPa 0,0 l/m 0 min 0 min 0 W/m 18,8 km/h (3 Bft)
31.12.2014 01:56 2,5 C 1,1 C 96 % 1033,5 hPa 0,0 l/m 0 min 0 min 0 W/m 16,7 km/h (3 Bft)
31.12.2014 01:58 2,5 C 1,1 C 96 % 1033,5 hPa 0,0 l/m 0 min 0 min 0 W/m 20,9 km/h (4 Bft)
31.12.2014 02:00 2,5 C 1,1 C 96 % 1033,4 hPa 0,0 l/m 0 min 0 min 0 W/m 14,6 km/h (3 Bft)
31.12.2014 02:02 2,5 C 1,1 C 96 % 1033,5 hPa 0,0 l/m 0 min 0 min 0 W/m 12,6 km/h (3 Bft)
31.12.2014 02:04 2,5 C 1,1 C 96 % 1033,5 hPa 0,0 l/m 0 min 0 min 0 W/m 14,6 km/h (3 Bft)
31.12.2014 02:06 2,5 C 1,1 C 96 % 1033,5 hPa 0,0 l/m 0 min 0 min 0 W/m 16,7 km/h (3 Bft)
31.12.2014 02:08 2,5 C 1,1 C 96 % 1033,5 hPa 0,0 l/m 0 min 0 min 0 W/m 20,9 km/h (4 Bft)
31.12.2014 02:10 2,5 C 1,7 C 96 % 1033,5 hPa 0,0 l/m 0 min 0 min 0 W/m 16,7 km/h (3 Bft)
31.12.2014 02:12 2,5 C 1,7 C 96 % 1033,5 hPa 0,0 l/m 0 min 0 min 0 W/m 12,6 km/h (3 Bft)
31.12.2014 02:14 2,5 C 1,7 C 96 % 1033,5 hPa 0,0 l/m 0 min 0 min 0 W/m 20,9 km/h (4 Bft)
31.12.2014 02:16 2,5 C 1,7 C 96 % 1033,5 hPa 0,0 l/m 0 min 0 min 0 W/m 18,8 km/h (3 Bft)
31.12.2014 02:18 2,5 C 1,7 C 96 % 1033,4 hPa 0,0 l/m 0 min 0 min 0 W/m 16,7 km/h (3 Bft)
31.12.2014 02:20 2,5 C 1,7 C 96 % 1033,5 hPa 0,0 l/m 0 min 0 min 0 W/m 14,6 km/h (3 Bft)
31.12.2014 02:22 2,5 C 1,7 C 96 % 1033,5 hPa 0,0 l/m 0 min 0 min 0 W/m 18,8 km/h (3 Bft)
31.12.2014 02:24 2,5 C 1,7 C 96 % 1033,5 hPa 0,0 l/m 0 min 0 min 0 W/m 20,9 km/h (4 Bft)
31.12.2014 02:26 2,5 C 1,7 C 96 % 1033,5 hPa 0,0 l/m 0 min 0 min 0 W/m 12,6 km/h (3 Bft)
31.12.2014 02:28 2,5 C 1,7 C 96 % 1033,6 hPa 0,0 l/m 0 min 0 min 0 W/m 16,7 km/h (3 Bft)
31.12.2014 02:30 2,5 C 1,7 C 96 % 1033,6 hPa 0,0 l/m 0 min 0 min 0 W/m 16,7 km/h (3 Bft)
31.12.2014 02:32 2,5 C 1,7 C 96 % 1033,6 hPa 0,0 l/m 0 min 0 min 0 W/m 18,8 km/h (3 Bft)
31.12.2014 02:34 2,5 C 1,7 C 96 % 1033,6 hPa 0,0 l/m 0 min 0 min 0 W/m 16,7 km/h (3 Bft)
31.12.2014 02:36 2,5 C 1,7 C 96 % 1033,6 hPa 0,0 l/m 0 min 0 min 0 W/m 16,7 km/h (3 Bft)
31.12.2014 02:38 2,5 C 1,7 C 96 % 1033,6 hPa 0,0 l/m 0 min 0 min 0 W/m 14,6 km/h (3 Bft)
31.12.2014 02:40 2,5 C 1,7 C 96 % 1033,6 hPa 0,0 l/m 0 min 0 min 0 W/m 18,8 km/h (3 Bft)
31.12.2014 02:42 2,6 C 1,7 C 96 % 1033,6 hPa 0,0 l/m 0 min 0 min 0 W/m 12,6 km/h (3 Bft)
31.12.2014 02:44 2,5 C 1,7 C 96 % 1033,6 hPa 0,0 l/m 0 min 0 min 0 W/m 12,6 km/h (3 Bft)
31.12.2014 02:46 2,6 C 1,7 C 96 % 1033,7 hPa 0,0 l/m 0 min 0 min 0 W/m 20,9 km/h (4 Bft)
31.12.2014 02:48 2,5 C 1,7 C 96 % 1033,7 hPa 0,0 l/m 0 min 0 min 0 W/m 16,7 km/h (3 Bft)
31.12.2014 02:50 2,6 C 1,7 C 96 % 1033,6 hPa 0,0 l/m 0 min 0 min 0 W/m 16,7 km/h (3 Bft)
31.12.2014 02:52 2,6 C 1,7 C 96 % 1033,7 hPa 0,0 l/m 0 min 0 min 0 W/m 10,5 km/h (2 Bft)
31.12.2014 02:54 2,6 C 1,7 C 96 % 1033,7 hPa 0,0 l/m 0 min 0 min 0 W/m 16,7 km/h (3 Bft)
31.12.2014 02:56 2,6 C 1,7 C 96 % 1033,7 hPa 0,0 l/m 0 min 0 min 0 W/m 16,7 km/h (3 Bft)
31.12.2014 02:58 2,6 C 1,7 C 96 % 1033,7 hPa 0,0 l/m 0 min 0 min 0 W/m 14,6 km/h (3 Bft)
31.12.2014 03:00 2,5 C 1,7 C 96 % 1033,6 hPa 0,0 l/m 0 min 0 min 0 W/m 18,8 km/h (3 Bft)
31.12.2014 03:02 2,6 C 1,7 C 96 % 1033,6 hPa 0,0 l/m 0 min 0 min 0 W/m 20,9 km/h (4 Bft)
31.12.2014 03:04 2,6 C 1,7 C 96 % 1033,6 hPa 0,0 l/m 0 min 0 min 0 W/m 23,0 km/h (4 Bft)
31.12.2014 03:06 2,5 C 1,7 C 96 % 1033,6 hPa 0,0 l/m 0 min 0 min 0 W/m 23,0 km/h (4 Bft)
31.12.2014 03:08 2,5 C 1,7 C 96 % 1033,6 hPa 0,0 l/m 0 min 0 min 0 W/m 18,8 km/h (3 Bft)
31.12.2014 03:10 2,5 C 1,7 C 96 % 1033,6 hPa 0,0 l/m 0 min 0 min 0 W/m 18,8 km/h (3 Bft)
31.12.2014 03:12 2,5 C 1,7 C 96 % 1033,6 hPa 0,0 l/m 0 min 0 min 0 W/m 23,0 km/h (4 Bft)
31.12.2014 03:14 2,6 C 1,7 C 96 % 1033,7 hPa 0,0 l/m 0 min 0 min 0 W/m 20,9 km/h (4 Bft)
31.12.2014 03:16 2,6 C 1,7 C 96 % 1033,7 hPa 0,0 l/m 0 min 0 min 0 W/m 18,8 km/h (3 Bft)
31.12.2014 03:18 2,6 C 1,7 C 96 % 1033,7 hPa 0,0 l/m 0 min 0 min 0 W/m 18,8 km/h (3 Bft)
31.12.2014 03:20 2,6 C 1,7 C 96 % 1033,7 hPa 0,0 l/m 0 min 0 min 0 W/m 16,7 km/h (3 Bft)
31.12.2014 03:22 2,6 C 1,7 C 96 % 1033,6 hPa 0,0 l/m 0 min 0 min 0 W/m 14,6 km/h (3 Bft)
31.12.2014 03:24 2,6 C 1,7 C 96 % 1033,7 hPa 0,0 l/m 0 min 0 min 0 W/m 14,6 km/h (3 Bft)
31.12.2014 03:26 2,6 C 1,7 C 96 % 1033,7 hPa 0,0 l/m 0 min 0 min 0 W/m 16,7 km/h (3 Bft)
31.12.2014 03:28 2,6 C 1,7 C 96 % 1033,6 hPa 0,0 l/m 0 min 0 min 0 W/m 12,6 km/h (3 Bft)
31.12.2014 03:30 2,6 C 1,7 C 96 % 1033,7 hPa 0,0 l/m 0 min 0 min 0 W/m 12,6 km/h (3 Bft)
31.12.2014 03:32 2,6 C 1,7 C 96 % 1033,6 hPa 0,0 l/m 0 min 0 min 0 W/m 14,6 km/h (3 Bft)
31.12.2014 03:34 2,6 C 1,7 C 96 % 1033,6 hPa 0,0 l/m 0 min 0 min 0 W/m 10,5 km/h (2 Bft)
31.12.2014 03:36 2,6 C 1,7 C 96 % 1033,7 hPa 0,0 l/m 0 min 0 min 0 W/m 12,6 km/h (3 Bft)
31.12.2014 03:38 2,6 C 1,7 C 96 % 1033,7 hPa 0,0 l/m 0 min 0 min 0 W/m 10,5 km/h (2 Bft)
31.12.2014 03:40 2,6 C 1,7 C 96 % 1033,6 hPa 0,0 l/m 0 min 0 min 0 W/m 14,6 km/h (3 Bft)
31.12.2014 03:42 2,6 C 1,7 C 96 % 1033,7 hPa 0,0 l/m 0 min 0 min 0 W/m 12,6 km/h (3 Bft)
31.12.2014 03:44 2,6 C 1,7 C 96 % 1033,7 hPa 0,0 l/m 0 min 0 min 0 W/m 14,6 km/h (3 Bft)
31.12.2014 03:46 2,6 C 1,7 C 96 % 1033,7 hPa 0,0 l/m 0 min 0 min 0 W/m 14,6 km/h (3 Bft)
31.12.2014 03:48 2,6 C 1,7 C 96 % 1033,7 hPa 0,0 l/m 0 min 0 min 0 W/m 8,4 km/h (2 Bft)
31.12.2014 03:50 2,6 C 1,7 C 96 % 1033,8 hPa 0,0 l/m 0 min 0 min 0 W/m 14,6 km/h (3 Bft)
31.12.2014 03:52 2,6 C 1,7 C 96 % 1033,8 hPa 0,0 l/m 0 min 0 min 0 W/m 16,7 km/h (3 Bft)
31.12.2014 03:54 2,6 C 1,7 C 96 % 1033,8 hPa 0,0 l/m 0 min 0 min 0 W/m 12,6 km/h (3 Bft)
31.12.2014 03:56 2,6 C 1,7 C 96 % 1033,7 hPa 0,0 l/m 0 min 0 min 0 W/m 12,6 km/h (3 Bft)
31.12.2014 03:58 2,6 C 1,7 C 96 % 1033,8 hPa 0,0 l/m 0 min 0 min 0 W/m 12,6 km/h (3 Bft)
31.12.2014 04:00 2,6 C 1,7 C 96 % 1033,8 hPa 0,0 l/m 0 min 0 min 0 W/m 14,6 km/h (3 Bft)
31.12.2014 04:02 2,6 C 1,7 C 96 % 1033,8 hPa 0,0 l/m 0 min 0 min 0 W/m 12,6 km/h (3 Bft)
31.12.2014 04:04 2,6 C 1,7 C 96 % 1033,8 hPa 0,0 l/m 0 min 0 min 0 W/m 12,6 km/h (3 Bft)
31.12.2014 04:06 2,6 C 1,7 C 96 % 1033,7 hPa 0,0 l/m 0 min 0 min 0 W/m 14,6 km/h (3 Bft)
31.12.2014 04:08 2,6 C 1,7 C 96 % 1033,6 hPa 0,0 l/m 0 min 0 min 0 W/m 10,5 km/h (2 Bft)
31.12.2014 04:10 2,6 C 1,7 C 96 % 1033,6 hPa 0,0 l/m 0 min 0 min 0 W/m 12,6 km/h (3 Bft)
31.12.2014 04:12 2,6 C 1,7 C 96 % 1033,7 hPa 0,0 l/m 0 min 0 min 0 W/m 12,6 km/h (3 Bft)
31.12.2014 04:14 2,6 C 1,7 C 96 % 1033,6 hPa 0,0 l/m 0 min 0 min 0 W/m 12,6 km/h (3 Bft)
31.12.2014 04:16 2,6 C 1,7 C 96 % 1033,6 hPa 0,0 l/m 0 min 0 min 0 W/m 12,6 km/h (3 Bft)
31.12.2014 04:18 2,6 C 1,7 C 96 % 1033,6 hPa 0,0 l/m 0 min 0 min 0 W/m 10,5 km/h (2 Bft)
31.12.2014 04:20 2,6 C 1,7 C 96 % 1033,5 hPa 0,0 l/m 0 min 0 min 0 W/m 12,6 km/h (3 Bft)
31.12.2014 04:22 2,6 C 1,7 C 96 % 1033,7 hPa 0,0 l/m 0 min 0 min 0 W/m 12,6 km/h (3 Bft)
31.12.2014 04:24 2,6 C 1,7 C 96 % 1033,6 hPa 0,0 l/m 0 min 0 min 0 W/m 12,6 km/h (3 Bft)
31.12.2014 04:26 2,6 C 1,7 C 96 % 1033,6 hPa 0,0 l/m 0 min 0 min 0 W/m 12,6 km/h (3 Bft)
31.12.2014 04:28 2,6 C 1,7 C 96 % 1033,7 hPa 0,0 l/m 0 min 0 min 0 W/m 14,6 km/h (3 Bft)
31.12.2014 04:30 2,6 C 1,7 C 96 % 1033,6 hPa 0,0 l/m 0 min 0 min 0 W/m 10,5 km/h (2 Bft)
31.12.2014 04:32 2,6 C 1,7 C 96 % 1033,6 hPa 0,0 l/m 0 min 0 min 0 W/m 12,6 km/h (3 Bft)
31.12.2014 04:34 2,6 C 1,7 C 96 % 1033,6 hPa 0,0 l/m 0 min 0 min 0 W/m 14,6 km/h (3 Bft)
31.12.2014 04:36 2,6 C 1,7 C 96 % 1033,6 hPa 0,0 l/m 0 min 0 min 0 W/m 12,6 km/h (3 Bft)
31.12.2014 04:38 2,6 C 1,7 C 96 % 1033,6 hPa 0,0 l/m 0 min 0 min 0 W/m 12,6 km/h (3 Bft)
31.12.2014 04:40 2,6 C 1,7 C 96 % 1033,7 hPa 0,0 l/m 0 min 0 min 0 W/m 10,5 km/h (2 Bft)
31.12.2014 04:42 2,6 C 1,7 C 96 % 1033,6 hPa 0,0 l/m 0 min 0 min 0 W/m 12,6 km/h (3 Bft)
31.12.2014 04:44 2,6 C 1,7 C 96 % 1033,6 hPa 0,0 l/m 0 min 0 min 0 W/m 14,6 km/h (3 Bft)
31.12.2014 04:46 2,6 C 1,7 C 96 % 1033,6 hPa 0,0 l/m 0 min 0 min 0 W/m 12,6 km/h (3 Bft)
31.12.2014 04:48 2,6 C 1,7 C 96 % 1033,6 hPa 0,0 l/m 0 min 0 min 0 W/m 12,6 km/h (3 Bft)
31.12.2014 04:50 2,6 C 1,7 C 96 % 1033,6 hPa 0,0 l/m 0 min 0 min 0 W/m 10,5 km/h (2 Bft)
31.12.2014 04:52 2,6 C 1,7 C 96 % 1033,5 hPa 0,0 l/m 0 min 0 min 0 W/m 12,6 km/h (3 Bft)
31.12.2014 04:54 2,6 C 1,7 C 96 % 1033,5 hPa 0,0 l/m 0 min 0 min 0 W/m 14,6 km/h (3 Bft)
31.12.2014 04:56 2,6 C 1,7 C 96 % 1033,5 hPa 0,0 l/m 0 min 0 min 0 W/m 14,6 km/h (3 Bft)
31.12.2014 04:58 2,6 C 1,7 C 96 % 1033,5 hPa 0,0 l/m 0 min 0 min 0 W/m 10,5 km/h (2 Bft)
31.12.2014 05:00 2,6 C 1,7 C 96 % 1033,5 hPa 0,0 l/m 0 min 0 min 0 W/m 12,6 km/h (3 Bft)
31.12.2014 05:02 2,6 C 1,7 C 96 % 1033,4 hPa 0,0 l/m 0 min 0 min 0 W/m 12,6 km/h (3 Bft)
31.12.2014 05:04 2,6 C 1,7 C 96 % 1033,4 hPa 0,0 l/m 0 min 0 min 0 W/m 12,6 km/h (3 Bft)
31.12.2014 05:06 2,6 C 1,7 C 96 % 1033,5 hPa 0,0 l/m 0 min 0 min 0 W/m 12,6 km/h (3 Bft)
31.12.2014 05:08 2,6 C 1,7 C 96 % 1033,4 hPa 0,0 l/m 0 min 0 min 0 W/m 14,6 km/h (3 Bft)
31.12.2014 05:10 2,6 C 1,7 C 96 % 1033,4 hPa 0,0 l/m 0 min 0 min 0 W/m 12,6 km/h (3 Bft)
31.12.2014 05:12 2,6 C 1,7 C 96 % 1033,4 hPa 0,0 l/m 0 min 0 min 0 W/m 14,6 km/h (3 Bft)
31.12.2014 05:14 2,6 C 1,7 C 96 % 1033,4 hPa 0,0 l/m 0 min 0 min 0 W/m 12,6 km/h (3 Bft)
31.12.2014 05:16 2,6 C 1,7 C 96 % 1033,4 hPa 0,0 l/m 0 min 0 min 0 W/m 14,6 km/h (3 Bft)
31.12.2014 05:18 2,6 C 1,7 C 96 % 1033,3 hPa 0,0 l/m 0 min 0 min 0 W/m 14,6 km/h (3 Bft)
31.12.2014 05:20 2,6 C 1,7 C 96 % 1033,4 hPa 0,0 l/m 0 min 0 min 0 W/m 18,8 km/h (3 Bft)
31.12.2014 05:22 2,6 C 1,7 C 96 % 1033,4 hPa 0,0 l/m 0 min 0 min 0 W/m 14,6 km/h (3 Bft)
31.12.2014 05:24 2,6 C 1,7 C 96 % 1033,3 hPa 0,0 l/m 0 min 0 min 0 W/m 14,6 km/h (3 Bft)
31.12.2014 05:26 2,6 C 1,7 C 96 % 1033,3 hPa 0,0 l/m 0 min 0 min 0 W/m 16,7 km/h (3 Bft)
31.12.2014 05:28 2,6 C 1,7 C 96 % 1033,3 hPa 0,0 l/m 0 min 0 min 0 W/m 12,6 km/h (3 Bft)
31.12.2014 05:30 2,6 C 1,7 C 96 % 1033,3 hPa 0,0 l/m 0 min 0 min 0 W/m 16,7 km/h (3 Bft)
31.12.2014 05:32 2,6 C 1,7 C 96 % 1033,3 hPa 0,0 l/m 0 min 0 min 0 W/m 12,6 km/h (3 Bft)
31.12.2014 05:34 2,6 C 1,7 C 96 % 1033,4 hPa 0,0 l/m 0 min 0 min 0 W/m 14,6 km/h (3 Bft)
31.12.2014 05:36 2,6 C 1,7 C 96 % 1033,3 hPa 0,0 l/m 0 min 0 min 0 W/m 18,8 km/h (3 Bft)
31.12.2014 05:38 2,6 C 1,7 C 96 % 1033,3 hPa 0,0 l/m 0 min 0 min 0 W/m 16,7 km/h (3 Bft)
31.12.2014 05:40 2,6 C 1,7 C 96 % 1033,3 hPa 0,0 l/m 0 min 0 min 0 W/m 14,6 km/h (3 Bft)
31.12.2014 05:42 2,6 C 1,7 C 96 % 1033,3 hPa 0,0 l/m 0 min 0 min 0 W/m 16,7 km/h (3 Bft)
31.12.2014 05:44 2,6 C 1,7 C 96 % 1033,3 hPa 0,0 l/m 0 min 0 min 0 W/m 10,5 km/h (2 Bft)
31.12.2014 05:46 2,6 C 1,7 C 96 % 1033,2 hPa 0,0 l/m 0 min 0 min 0 W/m 14,6 km/h (3 Bft)
31.12.2014 05:48 2,6 C 1,7 C 96 % 1033,2 hPa 0,0 l/m 0 min 0 min 0 W/m 10,5 km/h (2 Bft)
31.12.2014 05:50 2,6 C 1,7 C 96 % 1033,3 hPa 0,0 l/m 0 min 0 min 0 W/m 14,6 km/h (3 Bft)
31.12.2014 05:52 2,6 C 1,7 C 96 % 1033,2 hPa 0,0 l/m 0 min 0 min 0 W/m 10,5 km/h (2 Bft)
31.12.2014 05:54 2,6 C 1,7 C 96 % 1033,2 hPa 0,0 l/m 0 min 0 min 0 W/m 14,6 km/h (3 Bft)
31.12.2014 05:56 2,6 C 1,7 C 96 % 1033,2 hPa 0,0 l/m 0 min 0 min 0 W/m 16,7 km/h (3 Bft)
31.12.2014 05:58 2,6 C 1,7 C 96 % 1033,2 hPa 0,0 l/m 0 min 0 min 0 W/m 16,7 km/h (3 Bft)
31.12.2014 06:00 2,6 C 1,7 C 96 % 1033,2 hPa 0,0 l/m 0 min 0 min 0 W/m 14,6 km/h (3 Bft)
31.12.2014 06:02 2,6 C 1,7 C 96 % 1033,2 hPa 0,0 l/m 0 min 0 min 0 W/m 14,6 km/h (3 Bft)
31.12.2014 06:05 2,6 C 1,7 C 96 % 1033,2 hPa 0,0 l/m 0 min 0 min 0 W/m 14,6 km/h (3 Bft)
31.12.2014 06:08 2,6 C 1,7 C 96 % 1033,1 hPa 0,0 l/m 0 min 0 min 0 W/m 16,7 km/h (3 Bft)
31.12.2014 06:10 2,6 C 1,7 C 96 % 1033,1 hPa 0,0 l/m 0 min 0 min 0 W/m 14,6 km/h (3 Bft)
31.12.2014 06:13 2,6 C 1,7 C 96 % 1033,2 hPa 0,0 l/m 0 min 0 min 0 W/m 14,6 km/h (3 Bft)
31.12.2014 06:14 2,6 C 1,7 C 96 % 1033,2 hPa 0,0 l/m 0 min 0 min 0 W/m 10,5 km/h (2 Bft)
31.12.2014 06:18 2,7 C 1,7 C 96 % 1033,2 hPa 0,0 l/m 0 min 0 min 0 W/m 10,5 km/h (2 Bft)
31.12.2014 06:19 2,7 C 1,7 C 96 % 1033,2 hPa 0,0 l/m 0 min 0 min 0 W/m 14,6 km/h (3 Bft)
31.12.2014 06:20 2,7 C 1,7 C 96 % 1033,2 hPa 0,0 l/m 0 min 0 min 0 W/m 14,6 km/h (3 Bft)
31.12.2014 06:25 2,7 C 1,7 C 96 % 1033,3 hPa 0,0 l/m 0 min 0 min 0 W/m 12,6 km/h (3 Bft)
31.12.2014 06:30 2,7 C 1,7 C 96 % 1033,3 hPa 0,0 l/m 0 min 0 min 0 W/m 14,6 km/h (3 Bft)
31.12.2014 06:35 2,7 C 1,7 C 96 % 1033,3 hPa 0,0 l/m 0 min 0 min 0 W/m 14,6 km/h (3 Bft)
31.12.2014 06:40 2,7 C 1,7 C 96 % 1033,3 hPa 0,0 l/m 0 min 0 min 0 W/m 12,6 km/h (3 Bft)
31.12.2014 06:45 2,7 C 1,7 C 96 % 1033,3 hPa 0,0 l/m 0 min 0 min 0 W/m 14,6 km/h (3 Bft)
31.12.2014 06:50 2,7 C 1,7 C 96 % 1033,3 hPa 0,0 l/m 0 min 0 min 0 W/m 12,6 km/h (3 Bft)
31.12.2014 06:55 2,7 C 1,7 C 96 % 1033,4 hPa 0,0 l/m 0 min 0 min 0 W/m 8,4 km/h (2 Bft)
31.12.2014 07:00 2,7 C 1,7 C 96 % 1033,5 hPa 0,0 l/m 0 min 0 min 0 W/m 10,5 km/h (2 Bft)
31.12.2014 07:05 2,7 C 1,7 C 96 % 1033,5 hPa 0,0 l/m 0 min 0 min 0 W/m 10,5 km/h (2 Bft)
31.12.2014 07:10 2,7 C 1,7 C 96 % 1033,5 hPa 0,0 l/m 0 min 0 min 0 W/m 12,6 km/h (3 Bft)
31.12.2014 07:16 2,7 C 1,7 C 96 % 1033,5 hPa 0,0 l/m 0 min 0 min 0 W/m 6,3 km/h (2 Bft)
31.12.2014 07:18 2,7 C 1,7 C 96 % 1033,6 hPa 0,0 l/m 0 min 0 min 0 W/m 12,6 km/h (3 Bft)
31.12.2014 07:20 2,7 C 1,7 C 96 % 1033,6 hPa 0,0 l/m 0 min 0 min 0 W/m 10,5 km/h (2 Bft)
31.12.2014 07:22 2,7 C 1,7 C 96 % 1033,5 hPa 0,0 l/m 0 min 0 min 0 W/m 12,6 km/h (3 Bft)
31.12.2014 07:24 2,7 C 1,7 C 96 % 1033,5 hPa 0,0 l/m 0 min 0 min 0 W/m 12,6 km/h (3 Bft)
31.12.2014 07:26 2,7 C 1,7 C 96 % 1033,6 hPa 0,0 l/m 0 min 0 min 0 W/m 14,6 km/h (3 Bft)
31.12.2014 07:28 2,7 C 1,7 C 96 % 1033,5 hPa 0,0 l/m 0 min 0 min 0 W/m 14,6 km/h (3 Bft)
31.12.2014 07:30 2,7 C 1,7 C 96 % 1033,5 hPa 0,0 l/m 0 min 0 min 0 W/m 12,6 km/h (3 Bft)
31.12.2014 07:32 2,7 C 1,7 C 96 % 1033,5 hPa 0,0 l/m 0 min 0 min 0 W/m 14,6 km/h (3 Bft)
31.12.2014 07:34 2,7 C 1,7 C 96 % 1033,5 hPa 0,0 l/m 0 min 0 min 0 W/m 12,6 km/h (3 Bft)
31.12.2014 07:36 2,7 C 1,7 C 96 % 1033,4 hPa 0,0 l/m 0 min 0 min 0 W/m 12,6 km/h (3 Bft)
31.12.2014 07:38 2,7 C 1,7 C 96 % 1033,5 hPa 0,0 l/m 0 min 0 min 0 W/m 12,6 km/h (3 Bft)
31.12.2014 07:40 2,7 C 1,7 C 96 % 1033,5 hPa 0,0 l/m 0 min 0 min 0 W/m 12,6 km/h (3 Bft)
31.12.2014 07:42 2,7 C 1,7 C 96 % 1033,6 hPa 0,0 l/m 0 min 0 min 0 W/m 16,7 km/h (3 Bft)
31.12.2014 07:44 2,7 C 1,7 C 96 % 1033,6 hPa 0,0 l/m 0 min 0 min 0 W/m 10,5 km/h (2 Bft)
31.12.2014 07:46 2,7 C 1,7 C 96 % 1033,6 hPa 0,0 l/m 0 min 0 min 0 W/m 12,6 km/h (3 Bft)
31.12.2014 07:48 2,7 C 1,7 C 96 % 1033,7 hPa 0,0 l/m 0 min 0 min 0 W/m 12,6 km/h (3 Bft)
31.12.2014 07:50 2,7 C 1,7 C 96 % 1033,6 hPa 0,0 l/m 0 min 0 min 0 W/m 12,6 km/h (3 Bft)
31.12.2014 07:52 2,7 C 1,7 C 96 % 1033,7 hPa 0,0 l/m 0 min 0 min 0 W/m 14,6 km/h (3 Bft)
31.12.2014 07:54 2,7 C 1,7 C 96 % 1033,7 hPa 0,0 l/m 0 min 0 min 0 W/m 10,5 km/h (2 Bft)
31.12.2014 07:56 2,7 C 1,7 C 96 % 1033,7 hPa 0,0 l/m 0 min 0 min 0 W/m 10,5 km/h (2 Bft)
31.12.2014 07:58 2,7 C 1,7 C 96 % 1033,7 hPa 0,0 l/m 0 min 0 min 0 W/m 10,5 km/h (2 Bft)
31.12.2014 08:00 2,7 C 1,7 C 96 % 1033,8 hPa 0,0 l/m 0 min 0 min 0 W/m 10,5 km/h (2 Bft)
31.12.2014 08:02 2,7 C 1,7 C 96 % 1033,8 hPa 0,0 l/m 0 min 0 min 0 W/m 8,4 km/h (2 Bft)
31.12.2014 08:04 2,7 C 1,7 C 96 % 1033,8 hPa 0,0 l/m 0 min 0 min 0 W/m 10,5 km/h (2 Bft)
31.12.2014 08:06 2,7 C 1,7 C 96 % 1033,8 hPa 0,0 l/m 0 min 0 min 0 W/m 6,3 km/h (2 Bft)
31.12.2014 08:08 2,7 C 1,7 C 96 % 1033,8 hPa 0,0 l/m 0 min 0 min 0 W/m 12,6 km/h (3 Bft)
31.12.2014 08:10 2,7 C 1,7 C 96 % 1033,9 hPa 0,0 l/m 0 min 0 min 0 W/m 12,6 km/h (3 Bft)
31.12.2014 08:12 2,7 C 1,7 C 96 % 1033,9 hPa 0,0 l/m 0 min 0 min 0 W/m 14,6 km/h (3 Bft)
31.12.2014 08:14 2,7 C 1,7 C 96 % 1033,9 hPa 0,0 l/m 0 min 0 min 0 W/m 12,6 km/h (3 Bft)
31.12.2014 08:16 2,7 C 1,7 C 96 % 1033,9 hPa 0,0 l/m 0 min 0 min 0 W/m 10,5 km/h (2 Bft)
31.12.2014 08:18 2,7 C 1,7 C 96 % 1034,0 hPa 0,0 l/m 0 min 0 min 0 W/m 8,4 km/h (2 Bft)
31.12.2014 08:20 2,7 C 1,7 C 96 % 1034,0 hPa 0,0 l/m 0 min 0 min 0 W/m 12,6 km/h (3 Bft)
31.12.2014 08:22 2,7 C 1,7 C 96 % 1034,1 hPa 0,0 l/m 0 min 0 min 0 W/m 8,4 km/h (2 Bft)
31.12.2014 08:24 2,7 C 1,7 C 96 % 1034,1 hPa 0,0 l/m 0 min 0 min 0 W/m 12,6 km/h (3 Bft)
31.12.2014 08:26 2,7 C 1,7 C 95 % 1034,0 hPa 0,0 l/m 0 min 0 min 0 W/m 10,5 km/h (2 Bft)
31.12.2014 08:28 2,7 C 1,7 C 95 % 1034,1 hPa 0,0 l/m 0 min 0 min 0 W/m 10,5 km/h (2 Bft)
31.12.2014 08:30 2,7 C 1,7 C 95 % 1034,1 hPa 0,0 l/m 0 min 0 min 0 W/m 10,5 km/h (2 Bft)
31.12.2014 08:32 2,7 C 1,7 C 95 % 1034,1 hPa 0,0 l/m 0 min 0 min 0 W/m 12,6 km/h (3 Bft)
31.12.2014 08:34 2,8 C 1,7 C 95 % 1034,1 hPa 0,0 l/m 0 min 0 min 0 W/m 10,5 km/h (2 Bft)
31.12.2014 08:36 2,8 C 1,7 C 95 % 1034,1 hPa 0,0 l/m 0 min 0 min 0 W/m 10,5 km/h (2 Bft)
31.12.2014 08:38 2,8 C 1,7 C 95 % 1034,2 hPa 0,0 l/m 0 min 0 min 0 W/m 6,3 km/h (2 Bft)
31.12.2014 08:40 2,8 C 1,7 C 95 % 1034,3 hPa 0,0 l/m 0 min 0 min 0 W/m 12,6 km/h (3 Bft)
31.12.2014 08:42 2,8 C 1,7 C 96 % 1034,3 hPa 0,0 l/m 0 min 0 min 0 W/m 10,5 km/h (2 Bft)
31.12.2014 08:44 2,8 C 1,7 C 96 % 1034,4 hPa 0,0 l/m 0 min 0 min 0 W/m 12,6 km/h (3 Bft)
31.12.2014 08:46 2,8 C 1,7 C 96 % 1034,3 hPa 0,0 l/m 0 min 0 min 0 W/m 12,6 km/h (3 Bft)
31.12.2014 08:48 2,8 C 1,7 C 96 % 1034,3 hPa 0,0 l/m 0 min 0 min 0 W/m 10,5 km/h (2 Bft)
31.12.2014 08:50 2,8 C 1,7 C 96 % 1034,3 hPa 0,0 l/m 0 min 0 min 0 W/m 12,6 km/h (3 Bft)
31.12.2014 08:52 2,8 C 1,7 C 96 % 1034,3 hPa 0,0 l/m 0 min 0 min 4 W/m 10,5 km/h (2 Bft)
31.12.2014 08:54 2,8 C 1,7 C 96 % 1034,3 hPa 0,0 l/m 0 min 0 min 5 W/m 12,6 km/h (3 Bft)
31.12.2014 08:56 2,8 C 1,7 C 96 % 1034,3 hPa 0,0 l/m 0 min 0 min 5 W/m 14,6 km/h (3 Bft)
31.12.2014 08:58 2,9 C 1,7 C 96 % 1034,4 hPa 0,0 l/m 0 min 0 min 7 W/m 12,6 km/h (3 Bft)
31.12.2014 09:00 2,9 C 1,7 C 96 % 1034,4 hPa 0,0 l/m 0 min 0 min 8 W/m 14,6 km/h (3 Bft)
31.12.2014 09:04 2,9 C 1,7 C 96 % 1034,3 hPa 0,0 l/m 0 min 0 min 9 W/m 12,6 km/h (3 Bft)
31.12.2014 09:06 2,9 C 1,7 C 96 % 1034,4 hPa 0,0 l/m 0 min 0 min 10 W/m 12,6 km/h (3 Bft)
31.12.2014 09:08 2,9 C 1,7 C 96 % 1034,4 hPa 0,0 l/m 0 min 0 min 11 W/m 10,5 km/h (2 Bft)
31.12.2014 09:10 2,9 C 1,7 C 96 % 1034,5 hPa 0,0 l/m 0 min 0 min 11 W/m 10,5 km/h (2 Bft)
31.12.2014 09:12 2,9 C 1,7 C 96 % 1034,5 hPa 0,0 l/m 0 min 0 min 9 W/m 10,5 km/h (2 Bft)
31.12.2014 09:14 2,9 C 1,7 C 96 % 1034,5 hPa 0,0 l/m 0 min 0 min 11 W/m 12,6 km/h (3 Bft)
31.12.2014 09:16 2,9 C 1,7 C 96 % 1034,5 hPa 0,0 l/m 0 min 0 min 11 W/m 12,6 km/h (3 Bft)
31.12.2014 09:18 2,9 C 1,7 C 96 % 1034,5 hPa 0,0 l/m 0 min 0 min 10 W/m 10,5 km/h (2 Bft)
31.12.2014 09:20 2,9 C 1,7 C 96 % 1034,5 hPa 0,0 l/m 0 min 0 min 9 W/m 12,6 km/h (3 Bft)
31.12.2014 09:22 2,9 C 1,7 C 96 % 1034,5 hPa 0,0 l/m 0 min 0 min 10 W/m 10,5 km/h (2 Bft)
31.12.2014 09:24 2,9 C 1,7 C 96 % 1034,5 hPa 0,0 l/m 0 min 0 min 11 W/m 12,6 km/h (3 Bft)
31.12.2014 09:26 2,9 C 1,7 C 96 % 1034,5 hPa 0,0 l/m 0 min 0 min 12 W/m 12,6 km/h (3 Bft)
31.12.2014 09:28 2,9 C 1,7 C 96 % 1034,5 hPa 0,0 l/m 0 min 0 min 12 W/m 10,5 km/h (2 Bft)
31.12.2014 09:30 2,9 C 1,7 C 96 % 1034,5 hPa 0,0 l/m 0 min 0 min 11 W/m 12,6 km/h (3 Bft)
31.12.2014 09:32 2,9 C 1,7 C 96 % 1034,5 hPa 0,0 l/m 0 min 0 min 9 W/m 10,5 km/h (2 Bft)
31.12.2014 09:34 3,0 C 1,7 C 96 % 1034,5 hPa 0,0 l/m 0 min 0 min 11 W/m 10,5 km/h (2 Bft)
31.12.2014 09:36 3,0 C 1,7 C 96 % 1034,5 hPa 0,0 l/m 0 min 0 min 12 W/m 10,5 km/h (2 Bft)
31.12.2014 09:38 3,0 C 1,7 C 96 % 1034,5 hPa 0,0 l/m 0 min 0 min 12 W/m 12,6 km/h (3 Bft)
31.12.2014 09:40 3,0 C 1,7 C 96 % 1034,5 hPa 0,0 l/m 0 min 0 min 12 W/m 10,5 km/h (2 Bft)
31.12.2014 09:42 3,0 C 1,7 C 96 % 1034,5 hPa 0,0 l/m 0 min 0 min 12 W/m 12,6 km/h (3 Bft)
31.12.2014 09:44 3,0 C 1,7 C 96 % 1034,5 hPa 0,0 l/m 0 min 0 min 13 W/m 10,5 km/h (2 Bft)
31.12.2014 09:46 3,0 C 2,2 C 96 % 1034,5 hPa 0,0 l/m 0 min 0 min 16 W/m 10,5 km/h (2 Bft)
31.12.2014 09:48 3,0 C 2,2 C 96 % 1034,5 hPa 0,0 l/m 0 min 0 min 19 W/m 12,6 km/h (3 Bft)
31.12.2014 09:50 3,0 C 2,2 C 96 % 1034,5 hPa 0,0 l/m 0 min 0 min 21 W/m 10,5 km/h (2 Bft)
31.12.2014 09:52 3,0 C 2,2 C 96 % 1034,5 hPa 0,0 l/m 0 min 0 min 24 W/m 8,4 km/h (2 Bft)
31.12.2014 09:54 3,0 C 2,2 C 96 % 1034,5 hPa 0,0 l/m 0 min 0 min 27 W/m 10,5 km/h (2 Bft)
31.12.2014 09:56 3,1 C 2,2 C 96 % 1034,5 hPa 0,0 l/m 0 min 0 min 26 W/m 12,6 km/h (3 Bft)
31.12.2014 09:58 3,1 C 2,2 C 96 % 1034,5 hPa 0,0 l/m 0 min 0 min 26 W/m 8,4 km/h (2 Bft)
31.12.2014 10:00 3,1 C 2,2 C 96 % 1034,6 hPa 0,0 l/m 0 min 0 min 28 W/m 10,5 km/h (2 Bft)
31.12.2014 10:02 3,1 C 2,2 C 96 % 1034,6 hPa 0,0 l/m 0 min 0 min 29 W/m 12,6 km/h (3 Bft)
31.12.2014 10:04 3,1 C 2,2 C 96 % 1034,6 hPa 0,0 l/m 0 min 0 min 29 W/m 8,4 km/h (2 Bft)
31.12.2014 10:06 3,1 C 2,2 C 96 % 1034,6 hPa 0,0 l/m 0 min 0 min 30 W/m 8,4 km/h (2 Bft)
31.12.2014 10:08 3,1 C 2,2 C 96 % 1034,6 hPa 0,0 l/m 0 min 0 min 26 W/m 8,4 km/h (2 Bft)
31.12.2014 10:10 3,1 C 2,2 C 96 % 1034,6 hPa 0,0 l/m 0 min 0 min 25 W/m 8,4 km/h (2 Bft)
31.12.2014 10:12 3,1 C 2,2 C 96 % 1034,6 hPa 0,0 l/m 0 min 0 min 26 W/m 10,5 km/h (2 Bft)
31.12.2014 10:14 3,1 C 2,2 C 96 % 1034,6 hPa 0,0 l/m 0 min 0 min 25 W/m 10,5 km/h (2 Bft)
31.12.2014 10:16 3,1 C 2,2 C 96 % 1034,6 hPa 0,0 l/m 0 min 0 min 27 W/m 8,4 km/h (2 Bft)
31.12.2014 10:18 3,1 C 2,2 C 96 % 1034,6 hPa 0,0 l/m 0 min 0 min 34 W/m 10,5 km/h (2 Bft)
31.12.2014 10:20 3,1 C 2,2 C 96 % 1034,6 hPa 0,0 l/m 0 min 0 min 42 W/m 8,4 km/h (2 Bft)
31.12.2014 10:22 3,2 C 2,2 C 96 % 1034,6 hPa 0,0 l/m 0 min 0 min 49 W/m 10,5 km/h (2 Bft)
31.12.2014 10:24 3,2 C 2,2 C 96 % 1034,6 hPa 0,0 l/m 0 min 0 min 52 W/m 8,4 km/h (2 Bft)
31.12.2014 10:26 3,2 C 2,2 C 96 % 1034,7 hPa 0,0 l/m 0 min 0 min 51 W/m 6,3 km/h (2 Bft)
31.12.2014 10:28 3,2 C 2,2 C 96 % 1034,7 hPa 0,0 l/m 0 min 0 min 53 W/m 10,5 km/h (2 Bft)
31.12.2014 10:30 3,2 C 2,2 C 96 % 1034,6 hPa 0,0 l/m 0 min 0 min 57 W/m 10,5 km/h (2 Bft)
31.12.2014 10:32 3,2 C 2,8 C 96 % 1034,6 hPa 0,0 l/m 0 min 0 min 56 W/m 8,4 km/h (2 Bft)
31.12.2014 10:34 3,2 C 2,8 C 96 % 1034,6 hPa 0,0 l/m 0 min 0 min 56 W/m 14,6 km/h (3 Bft)
31.12.2014 10:36 3,2 C 2,8 C 96 % 1034,6 hPa 0,0 l/m 0 min 0 min 56 W/m 10,5 km/h (2 Bft)
31.12.2014 10:38 3,3 C 2,8 C 96 % 1034,7 hPa 0,0 l/m 0 min 0 min 54 W/m 10,5 km/h (2 Bft)
31.12.2014 10:40 3,3 C 2,8 C 96 % 1034,7 hPa 0,0 l/m 0 min 0 min 55 W/m 10,5 km/h (2 Bft)
31.12.2014 10:42 3,3 C 2,8 C 96 % 1034,8 hPa 0,0 l/m 0 min 0 min 52 W/m 8,4 km/h (2 Bft)
31.12.2014 10:44 3,3 C 2,8 C 96 % 1034,7 hPa 0,0 l/m 0 min 0 min 51 W/m 8,4 km/h (2 Bft)
31.12.2014 10:46 3,3 C 2,8 C 96 % 1034,8 hPa 0,0 l/m 0 min 0 min 60 W/m 6,3 km/h (2 Bft)
31.12.2014 10:48 3,3 C 2,8 C 96 % 1034,7 hPa 0,0 l/m 0 min 0 min 64 W/m 10,5 km/h (2 Bft)
31.12.2014 10:50 3,3 C 2,8 C 96 % 1034,7 hPa 0,0 l/m 0 min 0 min 64 W/m 6,3 km/h (2 Bft)
31.12.2014 10:52 3,4 C 2,8 C 96 % 1034,6 hPa 0,0 l/m 0 min 0 min 72 W/m 10,5 km/h (2 Bft)
31.12.2014 10:54 3,4 C 2,8 C 96 % 1034,6 hPa 0,0 l/m 0 min 0 min 79 W/m 8,4 km/h (2 Bft)
31.12.2014 10:56 3,4 C 2,8 C 96 % 1034,6 hPa 0,0 l/m 0 min 0 min 84 W/m 12,6 km/h (3 Bft)
31.12.2014 10:58 3,4 C 2,8 C 96 % 1034,6 hPa 0,0 l/m 0 min 0 min 84 W/m 8,4 km/h (2 Bft)
31.12.2014 11:00 3,4 C 2,8 C 96 % 1034,7 hPa 0,0 l/m 0 min 0 min 81 W/m 10,5 km/h (2 Bft)
31.12.2014 11:02 3,5 C 2,8 C 96 % 1034,7 hPa 0,0 l/m 0 min 0 min 77 W/m 8,4 km/h (2 Bft)
31.12.2014 11:04 3,5 C 2,8 C 96 % 1034,7 hPa 0,0 l/m 0 min 0 min 74 W/m 12,6 km/h (3 Bft)
31.12.2014 11:06 3,5 C 2,8 C 96 % 1034,7 hPa 0,0 l/m 0 min 0 min 68 W/m 8,4 km/h (2 Bft)
31.12.2014 11:08 3,6 C 2,8 C 96 % 1034,7 hPa 0,0 l/m 0 min 0 min 64 W/m 12,6 km/h (3 Bft)
31.12.2014 11:10 3,6 C 2,8 C 96 % 1034,7 hPa 0,0 l/m 0 min 0 min 70 W/m 10,5 km/h (2 Bft)
31.12.2014 11:12 3,6 C 2,8 C 96 % 1034,7 hPa 0,0 l/m 0 min 0 min 76 W/m 8,4 km/h (2 Bft)
31.12.2014 11:14 3,6 C 2,8 C 96 % 1034,7 hPa 0,0 l/m 0 min 0 min 70 W/m 10,5 km/h (2 Bft)
31.12.2014 11:16 3,6 C 3,3 C 96 % 1034,7 hPa 0,0 l/m 0 min 0 min 65 W/m 12,6 km/h (3 Bft)
31.12.2014 11:18 3,7 C 3,3 C 96 % 1034,6 hPa 0,0 l/m 0 min 0 min 59 W/m 10,5 km/h (2 Bft)
31.12.2014 11:20 3,7 C 3,3 C 96 % 1034,6 hPa 0,0 l/m 0 min 0 min 63 W/m 12,6 km/h (3 Bft)
31.12.2014 11:22 3,7 C 3,3 C 96 % 1034,6 hPa 0,0 l/m 0 min 0 min 64 W/m 12,6 km/h (3 Bft)
31.12.2014 11:24 3,7 C 3,3 C 96 % 1034,6 hPa 0,0 l/m 0 min 0 min 64 W/m 14,6 km/h (3 Bft)
31.12.2014 11:26 3,7 C 3,3 C 97 % 1034,6 hPa 0,0 l/m 0 min 0 min 57 W/m 10,5 km/h (2 Bft)
31.12.2014 11:28 3,7 C 3,3 C 97 % 1034,6 hPa 0,0 l/m 0 min 0 min 56 W/m 14,6 km/h (3 Bft)
31.12.2014 11:30 3,8 C 3,3 C 97 % 1034,7 hPa 0,0 l/m 0 min 0 min 44 W/m 14,6 km/h (3 Bft)
31.12.2014 11:32 3,8 C 3,3 C 97 % 1034,7 hPa 0,0 l/m 0 min 0 min 44 W/m 14,6 km/h (3 Bft)
31.12.2014 11:34 3,8 C 3,3 C 97 % 1034,7 hPa 0,0 l/m 0 min 0 min 54 W/m 16,7 km/h (3 Bft)
31.12.2014 11:36 3,8 C 3,3 C 97 % 1034,6 hPa 0,0 l/m 0 min 0 min 60 W/m 14,6 km/h (3 Bft)
31.12.2014 11:38 3,8 C 3,3 C 97 % 1034,7 hPa 0,0 l/m 0 min 0 min 62 W/m 12,6 km/h (3 Bft)
31.12.2014 11:40 3,9 C 3,3 C 97 % 1034,6 hPa 0,0 l/m 0 min 0 min 68 W/m 18,8 km/h (3 Bft)
31.12.2014 11:42 3,9 C 3,3 C 97 % 1034,6 hPa 0,0 l/m 0 min 0 min 70 W/m 12,6 km/h (3 Bft)
31.12.2014 11:44 3,9 C 3,3 C 97 % 1034,6 hPa 0,0 l/m 0 min 0 min 73 W/m 12,6 km/h (3 Bft)
31.12.2014 11:46 3,9 C 3,3 C 97 % 1034,6 hPa 0,0 l/m 0 min 0 min 75 W/m 14,6 km/h (3 Bft)
31.12.2014 11:48 3,9 C 3,3 C 97 % 1034,7 hPa 0,0 l/m 0 min 0 min 71 W/m 12,6 km/h (3 Bft)
31.12.2014 11:50 3,9 C 3,3 C 97 % 1034,7 hPa 0,0 l/m 0 min 0 min 69 W/m 10,5 km/h (2 Bft)
31.12.2014 11:52 4,0 C 3,3 C 97 % 1034,6 hPa 0,0 l/m 0 min 0 min 66 W/m 20,9 km/h (4 Bft)
31.12.2014 11:54 4,0 C 3,3 C 97 % 1034,7 hPa 0,0 l/m 0 min 0 min 67 W/m 16,7 km/h (3 Bft)
31.12.2014 11:56 4,1 C 3,9 C 97 % 1034,6 hPa 0,0 l/m 0 min 0 min 72 W/m 14,6 km/h (3 Bft)
31.12.2014 11:58 4,1 C 3,9 C 97 % 1034,6 hPa 0,0 l/m 0 min 0 min 72 W/m 12,6 km/h (3 Bft)
31.12.2014 12:00 4,1 C 3,9 C 97 % 1034,6 hPa 0,0 l/m 0 min 0 min 74 W/m 18,8 km/h (3 Bft)
31.12.2014 12:02 4,1 C 3,9 C 97 % 1034,6 hPa 0,0 l/m 0 min 0 min 77 W/m 16,7 km/h (3 Bft)
31.12.2014 12:05 4,2 C 3,9 C 97 % 1034,6 hPa 0,0 l/m 0 min 0 min 72 W/m 10,5 km/h (2 Bft)
31.12.2014 12:08 4,2 C 3,9 C 97 % 1034,5 hPa 0,0 l/m 0 min 0 min 73 W/m 18,8 km/h (3 Bft)
31.12.2014 12:10 4,2 C 3,9 C 97 % 1034,6 hPa 0,0 l/m 0 min 0 min 65 W/m 16,7 km/h (3 Bft)
31.12.2014 12:12 4,2 C 3,9 C 97 % 1034,6 hPa 0,0 l/m 0 min 0 min 75 W/m 14,6 km/h (3 Bft)
31.12.2014 12:14 4,2 C 3,9 C 97 % 1034,6 hPa 0,0 l/m 0 min 0 min 83 W/m 12,6 km/h (3 Bft)
31.12.2014 12:16 4,2 C 3,9 C 97 % 1034,6 hPa 0,0 l/m 0 min 0 min 80 W/m 14,6 km/h (3 Bft)
31.12.2014 12:18 4,3 C 3,9 C 97 % 1034,6 hPa 0,0 l/m 0 min 0 min 88 W/m 12,6 km/h (3 Bft)
31.12.2014 12:20 4,3 C 3,9 C 97 % 1034,6 hPa 0,0 l/m 0 min 0 min 85 W/m 16,7 km/h (3 Bft)
31.12.2014 12:22 4,3 C 3,9 C 97 % 1034,6 hPa 0,0 l/m 0 min 0 min 73 W/m 12,6 km/h (3 Bft)
31.12.2014 12:24 4,3 C 3,9 C 97 % 1034,6 hPa 0,0 l/m 0 min 0 min 67 W/m 14,6 km/h (3 Bft)
31.12.2014 12:26 4,3 C 3,9 C 97 % 1034,6 hPa 0,0 l/m 0 min 0 min 66 W/m 14,6 km/h (3 Bft)
31.12.2014 12:28 4,3 C 3,9 C 97 % 1034,7 hPa 0,0 l/m 0 min 0 min 64 W/m 16,7 km/h (3 Bft)
31.12.2014 12:30 4,4 C 3,9 C 97 % 1034,6 hPa 0,0 l/m 0 min 0 min 63 W/m 14,6 km/h (3 Bft)
31.12.2014 12:32 4,4 C 3,9 C 97 % 1034,6 hPa 0,0 l/m 0 min 0 min 66 W/m 12,6 km/h (3 Bft)
31.12.2014 12:34 4,4 C 3,9 C 97 % 1034,6 hPa 0,0 l/m 0 min 0 min 71 W/m 12,6 km/h (3 Bft)
31.12.2014 12:36 4,4 C 3,9 C 97 % 1034,6 hPa 0,0 l/m 0 min 0 min 76 W/m 14,6 km/h (3 Bft)
31.12.2014 12:38 4,4 C 3,9 C 97 % 1034,6 hPa 0,0 l/m 0 min 0 min 76 W/m 12,6 km/h (3 Bft)
31.12.2014 12:40 4,4 C 3,9 C 97 % 1034,6 hPa 0,0 l/m 0 min 0 min 74 W/m 12,6 km/h (3 Bft)
31.12.2014 12:42 4,4 C 3,9 C 97 % 1034,6 hPa 0,0 l/m 0 min 0 min 78 W/m 14,6 km/h (3 Bft)
31.12.2014 12:44 4,4 C 3,9 C 97 % 1034,6 hPa 0,0 l/m 0 min 0 min 82 W/m 12,6 km/h (3 Bft)
31.12.2014 12:46 4,5 C 3,9 C 97 % 1034,6 hPa 0,0 l/m 0 min 0 min 84 W/m 16,7 km/h (3 Bft)
31.12.2014 12:48 4,5 C 3,9 C 97 % 1034,6 hPa 0,0 l/m 0 min 0 min 82 W/m 16,7 km/h (3 Bft)
31.12.2014 12:50 4,5 C 3,9 C 97 % 1034,5 hPa 0,0 l/m 0 min 0 min 78 W/m 12,6 km/h (3 Bft)
31.12.2014 12:52 4,5 C 3,9 C 97 % 1034,6 hPa 0,0 l/m 0 min 0 min 84 W/m 16,7 km/h (3 Bft)
31.12.2014 12:54 4,6 C 4,4 C 96 % 1034,5 hPa 0,0 l/m 0 min 0 min 90 W/m 16,7 km/h (3 Bft)
31.12.2014 12:56 4,6 C 4,4 C 96 % 1034,5 hPa 0,0 l/m 0 min 0 min 93 W/m 12,6 km/h (3 Bft)
31.12.2014 12:58 4,6 C 4,4 C 96 % 1034,5 hPa 0,0 l/m 0 min 0 min 95 W/m 10,5 km/h (2 Bft)
31.12.2014 13:00 4,6 C 4,4 C 96 % 1034,5 hPa 0,0 l/m 0 min 0 min 95 W/m 12,6 km/h (3 Bft)
31.12.2014 13:02 4,6 C 4,4 C 96 % 1034,6 hPa 0,0 l/m 0 min 0 min 95 W/m 10,5 km/h (2 Bft)
31.12.2014 13:04 4,7 C 4,4 C 96 % 1034,5 hPa 0,0 l/m 0 min 0 min 97 W/m 10,5 km/h (2 Bft)
31.12.2014 13:06 4,7 C 4,4 C 96 % 1034,5 hPa 0,0 l/m 0 min 0 min 99 W/m 14,6 km/h (3 Bft)
31.12.2014 13:08 4,7 C 4,4 C 96 % 1034,5 hPa 0,0 l/m 0 min 0 min 102 W/m 8,4 km/h (2 Bft)
31.12.2014 13:10 4,8 C 4,4 C 96 % 1034,4 hPa 0,0 l/m 0 min 0 min 105 W/m 14,6 km/h (3 Bft)
31.12.2014 13:12 4,8 C 4,4 C 96 % 1034,4 hPa 0,0 l/m 0 min 0 min 108 W/m 6,3 km/h (2 Bft)
31.12.2014 13:14 4,8 C 4,4 C 96 % 1034,4 hPa 0,0 l/m 0 min 0 min 114 W/m 10,5 km/h (2 Bft)
31.12.2014 13:16 4,8 C 4,4 C 96 % 1034,4 hPa 0,0 l/m 0 min 0 min 118 W/m 14,6 km/h (3 Bft)
31.12.2014 13:18 4,9 C 4,4 C 96 % 1034,4 hPa 0,0 l/m 0 min 0 min 120 W/m 10,5 km/h (2 Bft)
31.12.2014 13:20 4,9 C 4,4 C 96 % 1034,3 hPa 0,0 l/m 0 min 0 min 119 W/m 10,5 km/h (2 Bft)
31.12.2014 13:22 4,9 C 4,4 C 96 % 1034,3 hPa 0,0 l/m 0 min 0 min 113 W/m 12,6 km/h (3 Bft)
31.12.2014 13:24 4,9 C 5,0 C 96 % 1034,4 hPa 0,0 l/m 0 min 0 min 118 W/m 12,6 km/h (3 Bft)
31.12.2014 13:26 5,0 C 5,0 C 96 % 1034,4 hPa 0,0 l/m 2 min 0 min 133 W/m 14,6 km/h (3 Bft)
31.12.2014 13:28 5,0 C 5,0 C 96 % 1034,4 hPa 0,0 l/m 0 min 0 min 128 W/m 12,6 km/h (3 Bft)
31.12.2014 13:30 5,1 C 5,0 C 96 % 1034,4 hPa 0,0 l/m 0 min 0 min 121 W/m 14,6 km/h (3 Bft)
31.12.2014 13:32 5,1 C 5,0 C 96 % 1034,3 hPa 0,0 l/m 0 min 0 min 122 W/m 12,6 km/h (3 Bft)
31.12.2014 13:34 5,1 C 5,0 C 96 % 1034,4 hPa 0,0 l/m 0 min 0 min 125 W/m 16,7 km/h (3 Bft)
31.12.2014 13:36 5,2 C 5,0 C 96 % 1034,3 hPa 0,0 l/m 2 min 0 min 132 W/m 10,5 km/h (2 Bft)
31.12.2014 13:38 5,2 C 5,0 C 96 % 1034,3 hPa 0,0 l/m 2 min 0 min 144 W/m 14,6 km/h (3 Bft)
31.12.2014 13:40 5,2 C 5,6 C 96 % 1034,3 hPa 0,0 l/m 2 min 0 min 160 W/m 12,6 km/h (3 Bft)
31.12.2014 13:42 5,2 C 5,6 C 96 % 1034,3 hPa 0,0 l/m 2 min 0 min 168 W/m 10,5 km/h (2 Bft)
31.12.2014 13:44 5,3 C 5,6 C 96 % 1034,3 hPa 0,0 l/m 2 min 0 min 164 W/m 12,6 km/h (3 Bft)
31.12.2014 13:46 5,3 C 5,6 C 96 % 1034,3 hPa 0,0 l/m 2 min 0 min 158 W/m 14,6 km/h (3 Bft)
31.12.2014 13:48 5,3 C 5,6 C 96 % 1034,3 hPa 0,0 l/m 2 min 0 min 140 W/m 12,6 km/h (3 Bft)
31.12.2014 13:50 5,4 C 5,6 C 96 % 1034,2 hPa 0,0 l/m 0 min 0 min 121 W/m 12,6 km/h (3 Bft)
31.12.2014 13:52 5,4 C 5,0 C 96 % 1034,3 hPa 0,0 l/m 0 min 0 min 105 W/m 12,6 km/h (3 Bft)
31.12.2014 13:54 5,4 C 5,0 C 96 % 1034,3 hPa 0,0 l/m 0 min 0 min 96 W/m 16,7 km/h (3 Bft)
31.12.2014 13:56 5,4 C 5,0 C 96 % 1034,3 hPa 0,0 l/m 0 min 0 min 85 W/m 16,7 km/h (3 Bft)
31.12.2014 13:58 5,4 C 5,0 C 96 % 1034,3 hPa 0,0 l/m 0 min 0 min 80 W/m 12,6 km/h (3 Bft)
31.12.2014 14:00 5,4 C 5,0 C 96 % 1034,3 hPa 0,0 l/m 0 min 0 min 75 W/m 8,4 km/h (2 Bft)
31.12.2014 14:02 5,4 C 5,0 C 96 % 1034,3 hPa 0,0 l/m 0 min 0 min 68 W/m 12,6 km/h (3 Bft)
31.12.2014 14:04 5,4 C 5,0 C 95 % 1034,3 hPa 0,0 l/m 0 min 0 min 66 W/m 16,7 km/h (3 Bft)
31.12.2014 14:06 5,4 C 4,4 C 95 % 1034,4 hPa 0,0 l/m 0 min 0 min 65 W/m 12,6 km/h (3 Bft)
31.12.2014 14:08 5,4 C 4,4 C 95 % 1034,4 hPa 0,0 l/m 0 min 0 min 69 W/m 10,5 km/h (2 Bft)
31.12.2014 14:10 5,4 C 4,4 C 95 % 1034,4 hPa 0,0 l/m 0 min 0 min 69 W/m 10,5 km/h (2 Bft)
31.12.2014 14:12 5,4 C 4,4 C 95 % 1034,4 hPa 0,0 l/m 0 min 0 min 69 W/m 12,6 km/h (3 Bft)
31.12.2014 14:14 5,4 C 4,4 C 95 % 1034,3 hPa 0,0 l/m 0 min 0 min 69 W/m 10,5 km/h (2 Bft)
31.12.2014 14:16 5,4 C 4,4 C 95 % 1034,4 hPa 0,0 l/m 0 min 0 min 75 W/m 8,4 km/h (2 Bft)
31.12.2014 14:18 5,4 C 4,4 C 95 % 1034,3 hPa 0,0 l/m 0 min 0 min 79 W/m 10,5 km/h (2 Bft)
31.12.2014 14:20 5,4 C 4,4 C 95 % 1034,3 hPa 0,0 l/m 0 min 0 min 82 W/m 10,5 km/h (2 Bft)
31.12.2014 14:22 5,4 C 4,4 C 95 % 1034,2 hPa 0,0 l/m 0 min 0 min 82 W/m 12,6 km/h (3 Bft)
31.12.2014 14:24 5,4 C 4,4 C 95 % 1034,3 hPa 0,0 l/m 0 min 0 min 83 W/m 12,6 km/h (3 Bft)
31.12.2014 14:26 5,4 C 4,4 C 95 % 1034,2 hPa 0,0 l/m 0 min 0 min 83 W/m 8,4 km/h (2 Bft)
31.12.2014 14:28 5,4 C 4,4 C 95 % 1034,3 hPa 0,0 l/m 0 min 0 min 84 W/m 10,5 km/h (2 Bft)
31.12.2014 14:30 5,4 C 4,4 C 95 % 1034,3 hPa 0,0 l/m 0 min 0 min 84 W/m 10,5 km/h (2 Bft)
31.12.2014 14:32 5,4 C 4,4 C 95 % 1034,3 hPa 0,0 l/m 0 min 0 min 85 W/m 8,4 km/h (2 Bft)
31.12.2014 14:34 5,4 C 4,4 C 95 % 1034,3 hPa 0,0 l/m 0 min 0 min 84 W/m 8,4 km/h (2 Bft)
31.12.2014 14:36 5,4 C 4,4 C 95 % 1034,4 hPa 0,0 l/m 0 min 0 min 83 W/m 10,5 km/h (2 Bft)
31.12.2014 14:38 5,4 C 4,4 C 95 % 1034,3 hPa 0,0 l/m 0 min 0 min 83 W/m 10,5 km/h (2 Bft)
31.12.2014 14:40 5,4 C 4,4 C 94 % 1034,4 hPa 0,0 l/m 0 min 0 min 81 W/m 14,6 km/h (3 Bft)
31.12.2014 14:42 5,4 C 4,4 C 94 % 1034,4 hPa 0,0 l/m 0 min 0 min 79 W/m 12,6 km/h (3 Bft)
31.12.2014 14:44 5,4 C 5,0 C 94 % 1034,4 hPa 0,0 l/m 0 min 0 min 78 W/m 10,5 km/h (2 Bft)
31.12.2014 14:46 5,5 C 5,0 C 94 % 1034,4 hPa 0,0 l/m 0 min 0 min 77 W/m 12,6 km/h (3 Bft)
31.12.2014 14:48 5,5 C 5,0 C 94 % 1034,5 hPa 0,0 l/m 0 min 0 min 76 W/m 10,5 km/h (2 Bft)
31.12.2014 14:50 5,5 C 5,0 C 94 % 1034,4 hPa 0,0 l/m 0 min 0 min 76 W/m 10,5 km/h (2 Bft)
31.12.2014 14:52 5,5 C 5,0 C 94 % 1034,5 hPa 0,0 l/m 0 min 0 min 77 W/m 10,5 km/h (2 Bft)
31.12.2014 14:54 5,5 C 5,0 C 94 % 1034,5 hPa 0,0 l/m 0 min 0 min 77 W/m 12,6 km/h (3 Bft)
31.12.2014 14:56 5,5 C 5,0 C 94 % 1034,5 hPa 0,0 l/m 0 min 0 min 77 W/m 16,7 km/h (3 Bft)
31.12.2014 14:58 5,5 C 5,0 C 94 % 1034,6 hPa 0,0 l/m 0 min 0 min 76 W/m 14,6 km/h (3 Bft)
31.12.2014 15:00 5,5 C 5,0 C 94 % 1034,5 hPa 0,0 l/m 0 min 0 min 74 W/m 12,6 km/h (3 Bft)
31.12.2014 15:02 5,5 C 5,0 C 94 % 1034,5 hPa 0,0 l/m 0 min 0 min 71 W/m 18,8 km/h (3 Bft)
31.12.2014 15:04 5,5 C 4,4 C 94 % 1034,6 hPa 0,0 l/m 0 min 0 min 69 W/m 10,5 km/h (2 Bft)
31.12.2014 15:06 5,6 C 4,4 C 94 % 1034,6 hPa 0,0 l/m 0 min 0 min 67 W/m 8,4 km/h (2 Bft)
31.12.2014 15:08 5,6 C 4,4 C 94 % 1034,6 hPa 0,0 l/m 0 min 0 min 63 W/m 12,6 km/h (3 Bft)
31.12.2014 15:10 5,6 C 4,4 C 94 % 1034,6 hPa 0,0 l/m 0 min 0 min 60 W/m 12,6 km/h (3 Bft)
31.12.2014 15:12 5,6 C 4,4 C 94 % 1034,6 hPa 0,0 l/m 0 min 0 min 56 W/m 12,6 km/h (3 Bft)
31.12.2014 15:14 5,6 C 4,4 C 94 % 1034,6 hPa 0,0 l/m 0 min 0 min 54 W/m 12,6 km/h (3 Bft)
31.12.2014 15:16 5,5 C 4,4 C 94 % 1034,6 hPa 0,0 l/m 0 min 0 min 51 W/m 10,5 km/h (2 Bft)
31.12.2014 15:18 5,6 C 4,4 C 94 % 1034,6 hPa 0,0 l/m 0 min 0 min 48 W/m 10,5 km/h (2 Bft)
31.12.2014 15:20 5,6 C 4,4 C 94 % 1034,6 hPa 0,0 l/m 0 min 0 min 46 W/m 10,5 km/h (2 Bft)
31.12.2014 15:22 5,5 C 4,4 C 94 % 1034,5 hPa 0,0 l/m 0 min 0 min 44 W/m 10,5 km/h (2 Bft)
31.12.2014 15:24 5,5 C 4,4 C 94 % 1034,5 hPa 0,0 l/m 0 min 0 min 42 W/m 8,4 km/h (2 Bft)
31.12.2014 15:26 5,5 C 4,4 C 94 % 1034,6 hPa 0,0 l/m 0 min 0 min 40 W/m 8,4 km/h (2 Bft)
31.12.2014 15:28 5,5 C 4,4 C 94 % 1034,6 hPa 0,0 l/m 0 min 0 min 39 W/m 10,5 km/h (2 Bft)
31.12.2014 15:30 5,5 C 4,4 C 94 % 1034,7 hPa 0,0 l/m 0 min 0 min 37 W/m 10,5 km/h (2 Bft)
31.12.2014 15:32 5,5 C 4,4 C 94 % 1034,7 hPa 0,0 l/m 0 min 0 min 35 W/m 8,4 km/h (2 Bft)
31.12.2014 15:34 5,5 C 4,4 C 94 % 1034,7 hPa 0,0 l/m 0 min 0 min 34 W/m 6,3 km/h (2 Bft)
31.12.2014 15:36 5,5 C 4,4 C 94 % 1034,7 hPa 0,0 l/m 0 min 0 min 33 W/m 10,5 km/h (2 Bft)
31.12.2014 15:38 5,5 C 4,4 C 94 % 1034,7 hPa 0,0 l/m 0 min 0 min 33 W/m 8,4 km/h (2 Bft)
31.12.2014 15:40 5,5 C 4,4 C 94 % 1034,7 hPa 0,0 l/m 0 min 0 min 32 W/m 6,3 km/h (2 Bft)
31.12.2014 15:42 5,5 C 4,4 C 94 % 1034,7 hPa 0,0 l/m 0 min 0 min 30 W/m 8,4 km/h (2 Bft)
31.12.2014 15:44 5,5 C 4,4 C 94 % 1034,7 hPa 0,0 l/m 0 min 0 min 28 W/m 10,5 km/h (2 Bft)
31.12.2014 15:46 5,5 C 4,4 C 94 % 1034,7 hPa 0,0 l/m 0 min 0 min 27 W/m 4,2 km/h (1 Bft)
31.12.2014 15:48 5,5 C 4,4 C 94 % 1034,7 hPa 0,0 l/m 0 min 0 min 26 W/m 8,4 km/h (2 Bft)
31.12.2014 15:50 5,5 C 4,4 C 94 % 1034,7 hPa 0,0 l/m 0 min 0 min 25 W/m 8,4 km/h (2 Bft)
31.12.2014 15:52 5,5 C 4,4 C 94 % 1034,7 hPa 0,0 l/m 0 min 0 min 24 W/m 6,3 km/h (2 Bft)
31.12.2014 15:54 5,5 C 4,4 C 94 % 1034,7 hPa 0,0 l/m 0 min 0 min 23 W/m 6,3 km/h (2 Bft)
31.12.2014 15:56 5,4 C 4,4 C 94 % 1034,7 hPa 0,0 l/m 0 min 0 min 21 W/m 6,3 km/h (2 Bft)
31.12.2014 15:58 5,5 C 4,4 C 94 % 1034,7 hPa 0,0 l/m 0 min 0 min 21 W/m 6,3 km/h (2 Bft)
31.12.2014 16:00 5,5 C 4,4 C 94 % 1034,7 hPa 0,0 l/m 0 min 0 min 21 W/m 8,4 km/h (2 Bft)
31.12.2014 16:02 5,4 C 4,4 C 94 % 1034,7 hPa 0,0 l/m 0 min 0 min 19 W/m 8,4 km/h (2 Bft)
31.12.2014 16:04 5,4 C 4,4 C 94 % 1034,7 hPa 0,0 l/m 0 min 0 min 19 W/m 6,3 km/h (2 Bft)
31.12.2014 16:06 5,4 C 4,4 C 94 % 1034,7 hPa 0,0 l/m 0 min 0 min 18 W/m 8,4 km/h (2 Bft)
31.12.2014 16:08 5,4 C 4,4 C 94 % 1034,8 hPa 0,0 l/m 0 min 0 min 18 W/m 8,4 km/h (2 Bft)
31.12.2014 16:10 5,4 C 4,4 C 94 % 1034,7 hPa 0,0 l/m 0 min 0 min 18 W/m 8,4 km/h (2 Bft)
31.12.2014 16:12 5,4 C 3,9 C 94 % 1034,7 hPa 0,0 l/m 2 min 0 min 18 W/m 6,3 km/h (2 Bft)
31.12.2014 16:14 5,4 C 3,9 C 94 % 1034,7 hPa 0,0 l/m 2 min 0 min 18 W/m 6,3 km/h (2 Bft)
31.12.2014 16:16 5,4 C 3,9 C 94 % 1034,7 hPa 0,0 l/m 2 min 0 min 18 W/m 6,3 km/h (2 Bft)
31.12.2014 16:18 5,4 C 3,9 C 94 % 1034,7 hPa 0,0 l/m 2 min 0 min 18 W/m 6,3 km/h (2 Bft)
31.12.2014 16:20 5,4 C 3,9 C 94 % 1034,7 hPa 0,0 l/m 2 min 0 min 17 W/m 4,2 km/h (1 Bft)
31.12.2014 16:22 5,4 C 3,9 C 94 % 1034,7 hPa 0,0 l/m 2 min 0 min 16 W/m 4,2 km/h (1 Bft)
31.12.2014 16:24 5,4 C 3,9 C 94 % 1034,7 hPa 0,0 l/m 0 min 0 min 14 W/m 6,3 km/h (2 Bft)
31.12.2014 16:26 5,4 C 3,9 C 94 % 1034,7 hPa 0,0 l/m 0 min 0 min 12 W/m 6,3 km/h (2 Bft)
31.12.2014 16:28 5,4 C 3,9 C 94 % 1034,7 hPa 0,0 l/m 0 min 0 min 11 W/m 6,3 km/h (2 Bft)
31.12.2014 16:30 5,4 C 3,9 C 93 % 1034,7 hPa 0,0 l/m 0 min 0 min 9 W/m 6,3 km/h (2 Bft)
31.12.2014 16:32 5,4 C 3,3 C 93 % 1034,7 hPa 0,0 l/m 0 min 0 min 8 W/m 4,2 km/h (1 Bft)
31.12.2014 16:34 5,3 C 3,3 C 93 % 1034,7 hPa 0,0 l/m 0 min 0 min 7 W/m 6,3 km/h (2 Bft)
31.12.2014 16:36 5,3 C 3,3 C 94 % 1034,7 hPa 0,0 l/m 0 min 0 min 7 W/m 6,3 km/h (2 Bft)
31.12.2014 16:38 5,3 C 3,3 C 94 % 1034,7 hPa 0,0 l/m 0 min 0 min 7 W/m 6,3 km/h (2 Bft)
31.12.2014 16:40 5,3 C 3,3 C 93 % 1034,7 hPa 0,0 l/m 0 min 0 min 6 W/m 6,3 km/h (2 Bft)
31.12.2014 16:42 5,3 C 2,8 C 93 % 1034,8 hPa 0,0 l/m 0 min 0 min 5 W/m 6,3 km/h (2 Bft)
31.12.2014 16:44 5,3 C 2,8 C 93 % 1034,8 hPa 0,0 l/m 0 min 0 min 5 W/m 6,3 km/h (2 Bft)
31.12.2014 16:46 5,2 C 2,8 C 93 % 1034,8 hPa 0,0 l/m 0 min 0 min 4 W/m 6,3 km/h (2 Bft)
31.12.2014 16:48 5,2 C 2,8 C 93 % 1034,8 hPa 0,0 l/m 0 min 0 min 0 W/m 6,3 km/h (2 Bft)
31.12.2014 16:50 5,2 C 2,8 C 93 % 1034,8 hPa 0,0 l/m 0 min 0 min 0 W/m 2,1 km/h (1 Bft)
31.12.2014 16:52 5,2 C 2,2 C 93 % 1034,8 hPa 0,0 l/m 0 min 0 min 0 W/m 2,1 km/h (1 Bft)
31.12.2014 16:54 5,2 C 2,2 C 93 % 1034,8 hPa 0,0 l/m 0 min 0 min 0 W/m 4,2 km/h (1 Bft)
31.12.2014 16:56 5,1 C 2,2 C 93 % 1034,8 hPa 0,0 l/m 0 min 0 min 0 W/m 4,2 km/h (1 Bft)
31.12.2014 16:58 5,1 C 2,2 C 93 % 1034,8 hPa 0,0 l/m 0 min 0 min 0 W/m 2,1 km/h (1 Bft)
31.12.2014 17:00 5,1 C 1,7 C 93 % 1034,8 hPa 0,0 l/m 0 min 0 min 0 W/m 4,2 km/h (1 Bft)
31.12.2014 17:02 5,0 C 1,7 C 93 % 1034,8 hPa 0,0 l/m 0 min 0 min 0 W/m 6,3 km/h (2 Bft)
31.12.2014 17:04 4,9 C 1,7 C 93 % 1034,8 hPa 0,0 l/m 0 min 0 min 0 W/m 6,3 km/h (2 Bft)
31.12.2014 17:06 4,9 C 1,7 C 93 % 1034,8 hPa 0,0 l/m 0 min 0 min 0 W/m 4,2 km/h (1 Bft)
31.12.2014 17:08 4,9 C 1,7 C 93 % 1034,8 hPa 0,0 l/m 0 min 0 min 0 W/m 6,3 km/h (2 Bft)
31.12.2014 17:10 4,8 C 1,7 C 93 % 1034,8 hPa 0,0 l/m 0 min 0 min 0 W/m 6,3 km/h (2 Bft)
31.12.2014 17:12 4,8 C 1,7 C 93 % 1034,8 hPa 0,0 l/m 0 min 0 min 0 W/m 6,3 km/h (2 Bft)
31.12.2014 17:14 4,7 C 1,7 C 93 % 1034,8 hPa 0,0 l/m 0 min 0 min 0 W/m 4,2 km/h (1 Bft)
31.12.2014 17:16 4,7 C 1,7 C 93 % 1034,8 hPa 0,0 l/m 0 min 0 min 0 W/m 4,2 km/h (1 Bft)
31.12.2014 17:18 4,7 C 1,7 C 93 % 1034,8 hPa 0,0 l/m 0 min 0 min 0 W/m 6,3 km/h (2 Bft)
31.12.2014 17:20 4,6 C 1,7 C 93 % 1034,8 hPa 0,0 l/m 0 min 0 min 0 W/m 4,2 km/h (1 Bft)
31.12.2014 17:22 4,6 C 1,1 C 93 % 1034,8 hPa 0,0 l/m 0 min 0 min 0 W/m 6,3 km/h (2 Bft)
31.12.2014 17:24 4,5 C 1,1 C 93 % 1034,9 hPa 0,0 l/m 0 min 0 min 0 W/m 4,2 km/h (1 Bft)
31.12.2014 17:26 4,5 C 1,1 C 93 % 1034,9 hPa 0,0 l/m 0 min 0 min 0 W/m 4,2 km/h (1 Bft)
31.12.2014 17:28 4,4 C 1,1 C 93 % 1034,8 hPa 0,0 l/m 0 min 0 min 0 W/m 4,2 km/h (1 Bft)
31.12.2014 17:30 4,4 C 1,1 C 93 % 1034,8 hPa 0,0 l/m 0 min 0 min 0 W/m 6,3 km/h (2 Bft)
31.12.2014 17:32 4,3 C 1,1 C 92 % 1034,8 hPa 0,0 l/m 0 min 0 min 0 W/m 4,2 km/h (1 Bft)
31.12.2014 17:34 4,3 C 1,1 C 92 % 1034,8 hPa 0,0 l/m 0 min 0 min 0 W/m 4,2 km/h (1 Bft)
31.12.2014 17:36 4,2 C 1,1 C 92 % 1034,8 hPa 0,0 l/m 0 min 0 min 0 W/m 4,2 km/h (1 Bft)
31.12.2014 17:38 4,2 C 1,1 C 92 % 1034,8 hPa 0,0 l/m 0 min 0 min 0 W/m 4,2 km/h (1 Bft)
31.12.2014 17:40 4,2 C 1,1 C 92 % 1034,8 hPa 0,0 l/m 0 min 0 min 0 W/m 4,2 km/h (1 Bft)
31.12.2014 17:42 4,1 C 1,1 C 93 % 1034,8 hPa 0,0 l/m 0 min 0 min 0 W/m 6,3 km/h (2 Bft)
31.12.2014 17:44 4,1 C 1,1 C 93 % 1034,9 hPa 0,0 l/m 0 min 0 min 0 W/m 6,3 km/h (2 Bft)
31.12.2014 17:46 4,1 C 1,1 C 93 % 1034,8 hPa 0,0 l/m 0 min 0 min 0 W/m 4,2 km/h (1 Bft)
31.12.2014 17:48 4,0 C 1,1 C 93 % 1034,8 hPa 0,0 l/m 0 min 0 min 0 W/m 6,3 km/h (2 Bft)
31.12.2014 17:50 3,9 C 1,1 C 93 % 1034,8 hPa 0,0 l/m 0 min 0 min 0 W/m 6,3 km/h (2 Bft)
31.12.2014 17:52 3,9 C 1,1 C 92 % 1034,8 hPa 0,0 l/m 0 min 0 min 0 W/m 6,3 km/h (2 Bft)
31.12.2014 17:54 3,9 C 0,6 C 93 % 1034,9 hPa 0,0 l/m 0 min 0 min 0 W/m 4,2 km/h (1 Bft)
31.12.2014 17:56 3,8 C 0,6 C 93 % 1034,9 hPa 0,0 l/m 0 min 0 min 0 W/m 4,2 km/h (1 Bft)
31.12.2014 17:58 3,8 C 0,6 C 93 % 1034,9 hPa 0,0 l/m 0 min 0 min 0 W/m 4,2 km/h (1 Bft)
31.12.2014 18:00 3,7 C 0,6 C 93 % 1034,9 hPa 0,0 l/m 0 min 0 min 0 W/m 4,2 km/h (1 Bft)
31.12.2014 18:02 3,7 C 0,6 C 92 % 1034,9 hPa 0,0 l/m 0 min 0 min 0 W/m 4,2 km/h (1 Bft)
31.12.2014 18:05 3,6 C 0,6 C 92 % 1034,9 hPa 0,0 l/m 0 min 0 min 0 W/m 2,1 km/h (1 Bft)
31.12.2014 18:08 3,4 C 0,6 C 92 % 1034,9 hPa 0,0 l/m 0 min 0 min 0 W/m 4,2 km/h (1 Bft)
31.12.2014 18:10 3,4 C 0,6 C 92 % 1034,9 hPa 0,0 l/m 0 min 0 min 0 W/m 4,2 km/h (1 Bft)
31.12.2014 18:12 3,3 C 0,0 C 92 % 1034,9 hPa 0,0 l/m 0 min 0 min 0 W/m 4,2 km/h (1 Bft)
31.12.2014 18:14 3,3 C 0,0 C 92 % 1034,9 hPa 0,0 l/m 0 min 0 min 0 W/m 6,3 km/h (2 Bft)
31.12.2014 18:16 3,2 C 0,0 C 92 % 1034,9 hPa 0,0 l/m 0 min 0 min 0 W/m 4,2 km/h (1 Bft)
31.12.2014 18:18 3,2 C 0,0 C 92 % 1034,9 hPa 0,0 l/m 0 min 0 min 0 W/m 4,2 km/h (1 Bft)
31.12.2014 18:20 3,1 C 0,0 C 92 % 1035,0 hPa 0,0 l/m 0 min 0 min 0 W/m 6,3 km/h (2 Bft)
31.12.2014 18:22 3,1 C 0,0 C 92 % 1035,0 hPa 0,0 l/m 0 min 0 min 0 W/m 4,2 km/h (1 Bft)
31.12.2014 18:24 3,0 C 0,0 C 92 % 1035,0 hPa 0,0 l/m 0 min 0 min 0 W/m 6,3 km/h (2 Bft)
31.12.2014 18:26 3,0 C 0,0 C 92 % 1035,0 hPa 0,0 l/m 0 min 0 min 0 W/m 4,2 km/h (1 Bft)
31.12.2014 18:28 2,9 C 0,0 C 92 % 1035,0 hPa 0,0 l/m 0 min 0 min 0 W/m 8,4 km/h (2 Bft)
31.12.2014 18:30 2,9 C 0,0 C 92 % 1034,9 hPa 0,0 l/m 0 min 0 min 0 W/m 6,3 km/h (2 Bft)
31.12.2014 18:32 2,9 C 0,0 C 92 % 1034,9 hPa 0,0 l/m 0 min 0 min 0 W/m 6,3 km/h (2 Bft)
31.12.2014 18:34 2,8 C 0,0 C 92 % 1034,9 hPa 0,0 l/m 0 min 0 min 0 W/m 6,3 km/h (2 Bft)
31.12.2014 18:36 2,8 C 0,0 C 92 % 1035,0 hPa 0,0 l/m 0 min 0 min 0 W/m 6,3 km/h (2 Bft)
31.12.2014 18:38 2,8 C 0,0 C 92 % 1035,0 hPa 0,0 l/m 0 min 0 min 0 W/m 8,4 km/h (2 Bft)
31.12.2014 18:40 2,8 C 0,0 C 92 % 1035,1 hPa 0,0 l/m 0 min 0 min 0 W/m 6,3 km/h (2 Bft)
31.12.2014 18:42 2,8 C 0,0 C 92 % 1035,0 hPa 0,0 l/m 0 min 0 min 0 W/m 6,3 km/h (2 Bft)
31.12.2014 18:44 2,7 C 0,0 C 93 % 1035,2 hPa 0,0 l/m 0 min 0 min 0 W/m 6,3 km/h (2 Bft)
31.12.2014 18:46 2,7 C 0,0 C 93 % 1035,1 hPa 0,0 l/m 0 min 0 min 0 W/m 4,2 km/h (1 Bft)
31.12.2014 18:48 2,7 C 0,0 C 93 % 1035,1 hPa 0,0 l/m 0 min 0 min 0 W/m 4,2 km/h (1 Bft)
31.12.2014 18:50 2,7 C 0,0 C 93 % 1035,2 hPa 0,0 l/m 0 min 0 min 0 W/m 6,3 km/h (2 Bft)
31.12.2014 18:52 2,7 C 0,0 C 93 % 1035,2 hPa 0,0 l/m 0 min 0 min 0 W/m 4,2 km/h (1 Bft)
31.12.2014 18:54 2,6 C 0,0 C 93 % 1035,2 hPa 0,0 l/m 0 min 0 min 0 W/m 4,2 km/h (1 Bft)
31.12.2014 18:56 2,6 C 0,0 C 93 % 1035,1 hPa 0,0 l/m 0 min 0 min 0 W/m 4,2 km/h (1 Bft)
31.12.2014 18:58 2,6 C 0,0 C 93 % 1035,2 hPa 0,0 l/m 0 min 0 min 0 W/m 6,3 km/h (2 Bft)
31.12.2014 19:00 2,6 C 0,0 C 93 % 1035,2 hPa 0,0 l/m 0 min 0 min 0 W/m 6,3 km/h (2 Bft)
31.12.2014 19:02 2,5 C 0,0 C 93 % 1035,2 hPa 0,0 l/m 0 min 0 min 0 W/m 4,2 km/h (1 Bft)
31.12.2014 19:04 2,5 C 0,0 C 93 % 1035,1 hPa 0,0 l/m 0 min 0 min 0 W/m 6,3 km/h (2 Bft)
31.12.2014 19:06 2,4 C -0,6 C 93 % 1035,1 hPa 0,0 l/m 0 min 0 min 0 W/m 6,3 km/h (2 Bft)
31.12.2014 19:08 2,4 C -0,6 C 93 % 1035,2 hPa 0,0 l/m 0 min 0 min 0 W/m 6,3 km/h (2 Bft)
31.12.2014 19:10 2,4 C 0,0 C 93 % 1035,1 hPa 0,0 l/m 0 min 0 min 0 W/m 10,5 km/h (2 Bft)
31.12.2014 19:12 2,4 C 0,0 C 93 % 1035,2 hPa 0,0 l/m 0 min 0 min 0 W/m 8,4 km/h (2 Bft)
31.12.2014 19:14 2,3 C 0,0 C 93 % 1035,1 hPa 0,0 l/m 0 min 0 min 0 W/m 6,3 km/h (2 Bft)
31.12.2014 19:16 2,3 C 0,0 C 93 % 1035,2 hPa 0,0 l/m 0 min 0 min 0 W/m 8,4 km/h (2 Bft)
31.12.2014 19:18 2,3 C 0,0 C 93 % 1035,2 hPa 0,0 l/m 0 min 0 min 0 W/m 8,4 km/h (2 Bft)
31.12.2014 19:20 2,3 C 0,0 C 93 % 1035,1 hPa 0,0 l/m 0 min 0 min 0 W/m 6,3 km/h (2 Bft)
31.12.2014 19:22 2,3 C 0,0 C 93 % 1035,2 hPa 0,0 l/m 0 min 0 min 0 W/m 6,3 km/h (2 Bft)
31.12.2014 19:24 2,3 C 0,0 C 93 % 1035,1 hPa 0,0 l/m 0 min 0 min 0 W/m 6,3 km/h (2 Bft)
31.12.2014 19:26 2,3 C 0,0 C 93 % 1035,2 hPa 0,0 l/m 0 min 0 min 0 W/m 6,3 km/h (2 Bft)
31.12.2014 19:28 2,2 C 0,0 C 93 % 1035,1 hPa 0,0 l/m 0 min 0 min 0 W/m 6,3 km/h (2 Bft)
31.12.2014 19:30 2,2 C 0,0 C 93 % 1035,1 hPa 0,0 l/m 0 min 0 min 0 W/m 8,4 km/h (2 Bft)
31.12.2014 19:32 2,2 C 0,0 C 93 % 1035,1 hPa 0,0 l/m 0 min 0 min 0 W/m 8,4 km/h (2 Bft)
31.12.2014 19:34 2,2 C 0,0 C 93 % 1035,1 hPa 0,0 l/m 0 min 0 min 0 W/m 8,4 km/h (2 Bft)
31.12.2014 19:36 2,2 C 0,0 C 94 % 1035,1 hPa 0,0 l/m 0 min 0 min 0 W/m 8,4 km/h (2 Bft)
31.12.2014 19:38 2,2 C 0,0 C 94 % 1035,0 hPa 0,0 l/m 0 min 0 min 0 W/m 6,3 km/h (2 Bft)
31.12.2014 19:40 2,2 C 0,0 C 93 % 1035,0 hPa 0,0 l/m 0 min 0 min 0 W/m 8,4 km/h (2 Bft)
31.12.2014 19:42 2,2 C 0,0 C 93 % 1035,0 hPa 0,0 l/m 0 min 0 min 0 W/m 6,3 km/h (2 Bft)
31.12.2014 19:44 2,2 C 0,0 C 94 % 1035,0 hPa 0,0 l/m 0 min 0 min 0 W/m 6,3 km/h (2 Bft)
31.12.2014 19:46 2,2 C 0,0 C 94 % 1035,0 hPa 0,0 l/m 0 min 0 min 0 W/m 8,4 km/h (2 Bft)
31.12.2014 19:48 2,2 C 0,0 C 94 % 1035,0 hPa 0,0 l/m 0 min 0 min 0 W/m 8,4 km/h (2 Bft)
31.12.2014 19:50 2,1 C 0,0 C 94 % 1035,0 hPa 0,0 l/m 0 min 0 min 0 W/m 8,4 km/h (2 Bft)
31.12.2014 19:52 2,1 C 0,0 C 94 % 1035,0 hPa 0,0 l/m 0 min 0 min 0 W/m 8,4 km/h (2 Bft)
31.12.2014 19:54 2,1 C 0,0 C 94 % 1035,0 hPa 0,0 l/m 0 min 0 min 0 W/m 6,3 km/h (2 Bft)
31.12.2014 19:56 2,1 C 0,0 C 94 % 1035,1 hPa 0,0 l/m 0 min 0 min 0 W/m 8,4 km/h (2 Bft)
31.12.2014 19:58 2,1 C 0,0 C 94 % 1035,1 hPa 0,0 l/m 0 min 0 min 0 W/m 8,4 km/h (2 Bft)
31.12.2014 20:00 2,1 C 0,0 C 94 % 1035,1 hPa 0,0 l/m 0 min 0 min 0 W/m 10,5 km/h (2 Bft)
31.12.2014 20:02 2,1 C 0,0 C 94 % 1035,1 hPa 0,0 l/m 0 min 0 min 0 W/m 8,4 km/h (2 Bft)
31.12.2014 20:04 2,1 C 0,0 C 94 % 1035,1 hPa 0,0 l/m 0 min 0 min 0 W/m 6,3 km/h (2 Bft)
31.12.2014 20:06 2,1 C 0,0 C 94 % 1035,2 hPa 0,0 l/m 0 min 0 min 0 W/m 8,4 km/h (2 Bft)
31.12.2014 20:08 2,1 C 0,0 C 94 % 1035,2 hPa 0,0 l/m 0 min 0 min 0 W/m 6,3 km/h (2 Bft)
31.12.2014 20:10 2,1 C 0,0 C 94 % 1035,2 hPa 0,0 l/m 0 min 0 min 0 W/m 6,3 km/h (2 Bft)
31.12.2014 20:12 2,1 C 0,6 C 94 % 1035,2 hPa 0,0 l/m 0 min 0 min 0 W/m 8,4 km/h (2 Bft)
31.12.2014 20:14 2,1 C 0,6 C 94 % 1035,3 hPa 0,0 l/m 0 min 0 min 0 W/m 10,5 km/h (2 Bft)
31.12.2014 20:16 2,1 C 0,0 C 94 % 1035,3 hPa 0,0 l/m 0 min 0 min 0 W/m 6,3 km/h (2 Bft)
31.12.2014 20:18 2,1 C 0,0 C 94 % 1035,3 hPa 0,0 l/m 0 min 0 min 0 W/m 6,3 km/h (2 Bft)
31.12.2014 20:20 2,1 C 0,0 C 94 % 1035,2 hPa 0,0 l/m 0 min 0 min 0 W/m 6,3 km/h (2 Bft)
31.12.2014 20:22 2,1 C 0,0 C 94 % 1035,3 hPa 0,0 l/m 0 min 0 min 0 W/m 8,4 km/h (2 Bft)
31.12.2014 20:24 2,1 C 0,0 C 94 % 1035,3 hPa 0,0 l/m 0 min 0 min 0 W/m 8,4 km/h (2 Bft)
31.12.2014 20:26 2,1 C 0,0 C 94 % 1035,3 hPa 0,0 l/m 0 min 0 min 0 W/m 8,4 km/h (2 Bft)
31.12.2014 20:28 2,1 C 0,0 C 94 % 1035,3 hPa 0,0 l/m 0 min 0 min 0 W/m 6,3 km/h (2 Bft)
31.12.2014 20:30 2,1 C 0,0 C 94 % 1035,3 hPa 0,0 l/m 0 min 0 min 0 W/m 8,4 km/h (2 Bft)
31.12.2014 20:32 2,1 C 0,0 C 94 % 1035,3 hPa 0,0 l/m 0 min 0 min 0 W/m 6,3 km/h (2 Bft)
31.12.2014 20:34 2,1 C 0,0 C 94 % 1035,4 hPa 0,0 l/m 0 min 0 min 0 W/m 8,4 km/h (2 Bft)
31.12.2014 20:36 2,0 C 0,0 C 94 % 1035,4 hPa 0,0 l/m 0 min 0 min 0 W/m 8,4 km/h (2 Bft)
31.12.2014 20:38 2,0 C 0,0 C 94 % 1035,4 hPa 0,0 l/m 0 min 0 min 0 W/m 6,3 km/h (2 Bft)
31.12.2014 20:40 2,0 C 0,0 C 94 % 1035,5 hPa 0,0 l/m 0 min 0 min 0 W/m 6,3 km/h (2 Bft)
31.12.2014 20:42 2,0 C 0,0 C 95 % 1035,5 hPa 0,0 l/m 0 min 0 min 0 W/m 4,2 km/h (1 Bft)
31.12.2014 20:44 1,9 C 0,0 C 95 % 1035,4 hPa 0,0 l/m 0 min 0 min 0 W/m 6,3 km/h (2 Bft)
31.12.2014 20:46 1,9 C 0,0 C 95 % 1035,4 hPa 0,0 l/m 0 min 0 min 0 W/m 10,5 km/h (2 Bft)
31.12.2014 20:48 1,9 C 0,0 C 95 % 1035,5 hPa 0,0 l/m 0 min 0 min 0 W/m 8,4 km/h (2 Bft)
31.12.2014 20:50 1,9 C 0,0 C 95 % 1035,4 hPa 0,0 l/m 0 min 0 min 0 W/m 8,4 km/h (2 Bft)
31.12.2014 20:52 1,9 C 0,0 C 95 % 1035,4 hPa 0,0 l/m 0 min 0 min 0 W/m 8,4 km/h (2 Bft)
31.12.2014 20:54 1,9 C 0,0 C 95 % 1035,4 hPa 0,0 l/m 0 min 0 min 0 W/m 8,4 km/h (2 Bft)
31.12.2014 20:56 1,9 C 0,0 C 95 % 1035,4 hPa 0,0 l/m 0 min 0 min 0 W/m 10,5 km/h (2 Bft)
31.12.2014 20:58 1,9 C 0,0 C 95 % 1035,5 hPa 0,0 l/m 0 min 0 min 0 W/m 8,4 km/h (2 Bft)
31.12.2014 21:00 1,9 C 0,0 C 95 % 1035,5 hPa 0,0 l/m 0 min 0 min 0 W/m 8,4 km/h (2 Bft)
31.12.2014 21:02 1,9 C 0,0 C 95 % 1035,5 hPa 0,0 l/m 0 min 0 min 0 W/m 8,4 km/h (2 Bft)
31.12.2014 21:04 1,9 C 0,0 C 95 % 1035,5 hPa 0,0 l/m 0 min 0 min 0 W/m 8,4 km/h (2 Bft)
31.12.2014 21:06 1,9 C 0,0 C 95 % 1035,5 hPa 0,0 l/m 0 min 0 min 0 W/m 6,3 km/h (2 Bft)
31.12.2014 21:08 1,9 C 0,0 C 95 % 1035,5 hPa 0,0 l/m 0 min 0 min 0 W/m 6,3 km/h (2 Bft)
31.12.2014 21:10 1,9 C 0,0 C 95 % 1035,5 hPa 0,0 l/m 0 min 0 min 0 W/m 4,2 km/h (1 Bft)
31.12.2014 21:12 1,8 C 0,0 C 95 % 1035,5 hPa 0,0 l/m 0 min 0 min 0 W/m 8,4 km/h (2 Bft)
31.12.2014 21:14 1,8 C 0,0 C 95 % 1035,5 hPa 0,0 l/m 0 min 0 min 0 W/m 6,3 km/h (2 Bft)
31.12.2014 21:16 1,8 C 0,0 C 95 % 1035,6 hPa 0,0 l/m 0 min 0 min 0 W/m 8,4 km/h (2 Bft)
31.12.2014 21:18 1,8 C 0,0 C 95 % 1035,5 hPa 0,0 l/m 0 min 0 min 0 W/m 8,4 km/h (2 Bft)
31.12.2014 21:20 1,8 C 0,0 C 95 % 1035,5 hPa 0,0 l/m 0 min 0 min 0 W/m 8,4 km/h (2 Bft)
31.12.2014 21:22 1,8 C 0,0 C 95 % 1035,5 hPa 0,0 l/m 0 min 0 min 0 W/m 8,4 km/h (2 Bft)
31.12.2014 21:24 1,8 C 0,0 C 95 % 1035,6 hPa 0,0 l/m 0 min 0 min 0 W/m 8,4 km/h (2 Bft)
31.12.2014 21:26 1,8 C 0,0 C 95 % 1035,6 hPa 0,0 l/m 0 min 0 min 0 W/m 6,3 km/h (2 Bft)
31.12.2014 21:28 1,8 C 0,0 C 95 % 1035,6 hPa 0,0 l/m 0 min 0 min 0 W/m 4,2 km/h (1 Bft)
31.12.2014 21:30 1,8 C 0,0 C 95 % 1035,6 hPa 0,0 l/m 0 min 0 min 0 W/m 6,3 km/h (2 Bft)
31.12.2014 21:32 1,8 C -0,6 C 95 % 1035,6 hPa 0,0 l/m 0 min 0 min 0 W/m 8,4 km/h (2 Bft)
31.12.2014 21:34 1,7 C 0,0 C 95 % 1035,6 hPa 0,0 l/m 0 min 0 min 0 W/m 8,4 km/h (2 Bft)
31.12.2014 21:36 1,7 C 0,0 C 95 % 1035,6 hPa 0,0 l/m 0 min 0 min 0 W/m 6,3 km/h (2 Bft)
31.12.2014 21:38 1,7 C 0,0 C 95 % 1035,6 hPa 0,0 l/m 0 min 0 min 0 W/m 8,4 km/h (2 Bft)
31.12.2014 21:40 1,7 C 0,0 C 95 % 1035,7 hPa 0,0 l/m 0 min 0 min 0 W/m 8,4 km/h (2 Bft)
31.12.2014 21:42 1,7 C 0,0 C 95 % 1035,6 hPa 0,0 l/m 0 min 0 min 0 W/m 8,4 km/h (2 Bft)
31.12.2014 21:44 1,7 C 0,0 C 95 % 1035,7 hPa 0,0 l/m 0 min 0 min 0 W/m 8,4 km/h (2 Bft)
31.12.2014 21:46 1,7 C 0,0 C 95 % 1035,7 hPa 0,0 l/m 0 min 0 min 0 W/m 8,4 km/h (2 Bft)
31.12.2014 21:48 1,7 C 0,0 C 95 % 1035,7 hPa 0,0 l/m 0 min 0 min 0 W/m 6,3 km/h (2 Bft)
31.12.2014 21:50 1,7 C 0,0 C 95 % 1035,7 hPa 0,0 l/m 0 min 0 min 0 W/m 8,4 km/h (2 Bft)
31.12.2014 21:52 1,7 C 0,0 C 95 % 1035,7 hPa 0,0 l/m 0 min 0 min 0 W/m 8,4 km/h (2 Bft)
31.12.2014 21:54 1,7 C 0,0 C 95 % 1035,7 hPa 0,0 l/m 0 min 0 min 0 W/m 10,5 km/h (2 Bft)
31.12.2014 21:56 1,7 C 0,0 C 95 % 1035,8 hPa 0,0 l/m 0 min 0 min 0 W/m 8,4 km/h (2 Bft)
31.12.2014 21:58 1,7 C 0,0 C 95 % 1035,8 hPa 0,0 l/m 0 min 0 min 0 W/m 8,4 km/h (2 Bft)
31.12.2014 22:00 1,7 C 0,0 C 95 % 1035,8 hPa 0,0 l/m 0 min 0 min 0 W/m 8,4 km/h (2 Bft)
31.12.2014 22:02 1,7 C -0,6 C 95 % 1035,8 hPa 0,0 l/m 0 min 0 min 0 W/m 6,3 km/h (2 Bft)
31.12.2014 22:04 1,6 C -0,6 C 95 % 1035,8 hPa 0,0 l/m 0 min 0 min 0 W/m 8,4 km/h (2 Bft)
31.12.2014 22:06 1,6 C -0,6 C 95 % 1035,8 hPa 0,0 l/m 0 min 0 min 0 W/m 6,3 km/h (2 Bft)
31.12.2014 22:08 1,6 C -0,6 C 95 % 1035,8 hPa 0,0 l/m 0 min 0 min 0 W/m 6,3 km/h (2 Bft)
31.12.2014 22:10 1,6 C -0,6 C 95 % 1035,8 hPa 0,0 l/m 0 min 0 min 0 W/m 10,5 km/h (2 Bft)
31.12.2014 22:12 1,6 C -0,6 C 95 % 1035,7 hPa 0,0 l/m 0 min 0 min 0 W/m 8,4 km/h (2 Bft)
31.12.2014 22:14 1,6 C -0,6 C 95 % 1035,7 hPa 0,0 l/m 0 min 0 min 0 W/m 4,2 km/h (1 Bft)
31.12.2014 22:16 1,6 C -0,6 C 95 % 1035,7 hPa 0,0 l/m 0 min 0 min 0 W/m 6,3 km/h (2 Bft)
31.12.2014 22:18 1,6 C -0,6 C 95 % 1035,7 hPa 0,0 l/m 0 min 0 min 0 W/m 6,3 km/h (2 Bft)
31.12.2014 22:20 1,5 C -0,6 C 95 % 1035,7 hPa 0,0 l/m 0 min 0 min 0 W/m 6,3 km/h (2 Bft)
31.12.2014 22:22 1,5 C -0,6 C 95 % 1035,8 hPa 0,0 l/m 0 min 0 min 0 W/m 10,5 km/h (2 Bft)
31.12.2014 22:24 1,5 C -0,6 C 95 % 1035,7 hPa 0,0 l/m 0 min 0 min 0 W/m 10,5 km/h (2 Bft)
31.12.2014 22:26 1,4 C -0,6 C 95 % 1035,7 hPa 0,0 l/m 0 min 0 min 0 W/m 6,3 km/h (2 Bft)
31.12.2014 22:28 1,4 C -0,6 C 96 % 1035,8 hPa 0,0 l/m 0 min 0 min 0 W/m 8,4 km/h (2 Bft)
31.12.2014 22:30 1,4 C -0,6 C 96 % 1035,7 hPa 0,0 l/m 0 min 0 min 0 W/m 10,5 km/h (2 Bft)
31.12.2014 22:32 1,4 C -0,6 C 96 % 1035,7 hPa 0,0 l/m 0 min 0 min 0 W/m 10,5 km/h (2 Bft)
31.12.2014 22:34 1,4 C -0,6 C 95 % 1035,7 hPa 0,0 l/m 0 min 0 min 0 W/m 8,4 km/h (2 Bft)
31.12.2014 22:36 1,4 C -0,6 C 95 % 1035,7 hPa 0,0 l/m 0 min 0 min 0 W/m 6,3 km/h (2 Bft)
31.12.2014 22:38 1,4 C -0,6 C 95 % 1035,7 hPa 0,0 l/m 0 min 0 min 0 W/m 6,3 km/h (2 Bft)
31.12.2014 22:40 1,4 C -0,6 C 95 % 1035,7 hPa 0,0 l/m 0 min 0 min 0 W/m 8,4 km/h (2 Bft)
31.12.2014 22:42 1,4 C -0,6 C 95 % 1035,7 hPa 0,0 l/m 0 min 0 min 0 W/m 6,3 km/h (2 Bft)
31.12.2014 22:44 1,4 C -0,6 C 95 % 1035,7 hPa 0,0 l/m 0 min 0 min 0 W/m 8,4 km/h (2 Bft)
31.12.2014 22:46 1,4 C -0,6 C 95 % 1035,7 hPa 0,0 l/m 0 min 0 min 0 W/m 6,3 km/h (2 Bft)
31.12.2014 22:48 1,3 C 0,0 C 95 % 1035,7 hPa 0,0 l/m 0 min 0 min 0 W/m 10,5 km/h (2 Bft)
31.12.2014 22:50 1,3 C -0,6 C 95 % 1035,8 hPa 0,0 l/m 0 min 0 min 0 W/m 8,4 km/h (2 Bft)
31.12.2014 22:52 1,3 C -0,6 C 95 % 1035,7 hPa 0,0 l/m 0 min 0 min 0 W/m 8,4 km/h (2 Bft)
31.12.2014 22:54 1,3 C -0,6 C 96 % 1035,7 hPa 0,0 l/m 0 min 0 min 0 W/m 10,5 km/h (2 Bft)
31.12.2014 22:56 1,3 C -0,6 C 96 % 1035,8 hPa 0,0 l/m 0 min 0 min 0 W/m 8,4 km/h (2 Bft)
31.12.2014 22:58 1,3 C -0,6 C 96 % 1035,8 hPa 0,0 l/m 0 min 0 min 0 W/m 6,3 km/h (2 Bft)
31.12.2014 23:00 1,3 C -0,6 C 96 % 1035,9 hPa 0,0 l/m 0 min 0 min 0 W/m 4,2 km/h (1 Bft)
31.12.2014 23:02 1,3 C -0,6 C 96 % 1035,9 hPa 0,0 l/m 0 min 0 min 0 W/m 6,3 km/h (2 Bft)
31.12.2014 23:04 1,3 C -0,6 C 96 % 1035,8 hPa 0,0 l/m 0 min 0 min 0 W/m 6,3 km/h (2 Bft)
31.12.2014 23:06 1,3 C -0,6 C 96 % 1035,8 hPa 0,0 l/m 0 min 0 min 0 W/m 6,3 km/h (2 Bft)
31.12.2014 23:08 1,3 C -0,6 C 96 % 1035,9 hPa 0,0 l/m 0 min 0 min 0 W/m 8,4 km/h (2 Bft)
31.12.2014 23:10 1,2 C -0,6 C 96 % 1035,9 hPa 0,0 l/m 0 min 0 min 0 W/m 8,4 km/h (2 Bft)
31.12.2014 23:12 1,2 C -0,6 C 96 % 1035,9 hPa 0,0 l/m 0 min 0 min 0 W/m 8,4 km/h (2 Bft)
31.12.2014 23:14 1,2 C -0,6 C 96 % 1035,9 hPa 0,0 l/m 0 min 0 min 0 W/m 10,5 km/h (2 Bft)
31.12.2014 23:16 1,2 C -0,6 C 96 % 1035,9 hPa 0,0 l/m 0 min 0 min 0 W/m 10,5 km/h (2 Bft)
31.12.2014 23:18 1,2 C -0,6 C 96 % 1035,9 hPa 0,0 l/m 0 min 0 min 0 W/m 10,5 km/h (2 Bft)
31.12.2014 23:20 1,2 C -0,6 C 96 % 1036,0 hPa 0,0 l/m 0 min 0 min 0 W/m 10,5 km/h (2 Bft)
31.12.2014 23:22 1,2 C -0,6 C 96 % 1036,0 hPa 0,0 l/m 0 min 0 min 0 W/m 8,4 km/h (2 Bft)
31.12.2014 23:24 1,2 C -0,6 C 96 % 1036,0 hPa 0,0 l/m 0 min 0 min 0 W/m 10,5 km/h (2 Bft)
31.12.2014 23:26 1,2 C -0,6 C 96 % 1035,9 hPa 0,0 l/m 0 min 0 min 0 W/m 8,4 km/h (2 Bft)
31.12.2014 23:28 1,2 C -0,6 C 96 % 1035,9 hPa 0,0 l/m 0 min 0 min 0 W/m 8,4 km/h (2 Bft)
31.12.2014 23:30 1,2 C -0,6 C 96 % 1036,0 hPa 0,0 l/m 0 min 0 min 0 W/m 6,3 km/h (2 Bft)
31.12.2014 23:32 1,2 C -0,6 C 96 % 1036,0 hPa 0,0 l/m 0 min 0 min 0 W/m 6,3 km/h (2 Bft)
31.12.2014 23:34 1,2 C -0,6 C 96 % 1035,9 hPa 0,0 l/m 0 min 0 min 0 W/m 6,3 km/h (2 Bft)
31.12.2014 23:36 1,2 C -0,6 C 96 % 1036,0 hPa 0,0 l/m 0 min 0 min 0 W/m 6,3 km/h (2 Bft)
31.12.2014 23:38 1,2 C -0,6 C 96 % 1035,9 hPa 0,0 l/m 0 min 0 min 0 W/m 6,3 km/h (2 Bft)
31.12.2014 23:40 1,1 C -0,6 C 96 % 1035,9 hPa 0,0 l/m 0 min 0 min 0 W/m 6,3 km/h (2 Bft)
31.12.2014 23:42 1,1 C -0,6 C 96 % 1036,0 hPa 0,0 l/m 0 min 0 min 0 W/m 6,3 km/h (2 Bft)
31.12.2014 23:44 1,1 C -0,6 C 96 % 1035,9 hPa 0,0 l/m 0 min 0 min 0 W/m 4,2 km/h (1 Bft)
31.12.2014 23:46 1,1 C -0,6 C 96 % 1035,8 hPa 0,0 l/m 0 min 0 min 0 W/m 6,3 km/h (2 Bft)
31.12.2014 23:48 1,1 C -1,1 C 96 % 1035,8 hPa 0,0 l/m 0 min 0 min 0 W/m 8,4 km/h (2 Bft)
31.12.2014 23:50 1,1 C -1,1 C 96 % 1035,8 hPa 0,0 l/m 0 min 0 min 0 W/m 6,3 km/h (2 Bft)
31.12.2014 23:52 1,1 C -1,1 C 96 % 1035,8 hPa 0,0 l/m 0 min 0 min 0 W/m 6,3 km/h (2 Bft)
31.12.2014 23:54 1,1 C -0,6 C 96 % 1035,8 hPa 0,0 l/m 0 min 0 min 0 W/m 6,3 km/h (2 Bft)
31.12.2014 23:56 1,1 C -0,6 C 96 % 1035,8 hPa 0,0 l/m 0 min 0 min 0 W/m 8,4 km/h (2 Bft)
31.12.2014 23:58 1,1 C -0,6 C 96 % 1035,8 hPa 0,0 l/m 0 min 0 min 0 W/m 8,4 km/h (2 Bft)
_ Min-Zeit 23:36 23:48 17:32 06:08 - - - - 16:50
Minimum _ 1,1 C -1,1 C 92 % 1033,1 hPa - - - - 2,1 km/h (1 Bft)
_ Max-Zeit 15:00 13:40 11:26 23:20 00:00 13:26 00:22 13:42 00:10
Maximum _ 5,6 C 5,6 C 97 % 1036,0 hPa 0,0 l/m 2 min 2 min 168 W/m 23,0 km/h
W-SW (4 Bft)
Durchschnitt _ 3,1 C 1,8 C 95 % 1034,4 hPa #0,0 l/m #28 min. #4 min. 57 W/m 11,1 km/h (2 Bft)
© 2015 W. Hausmann